Time,TemperatureF,DewpointF,PressureIn,WindDirection,WindDirectionDegrees,WindSpeedMPH,WindSpeedGustMPH,Humidity,HourlyPrecipIn,Conditions,Clouds,dailyrainin,SolarRadiationWatts/m^2,SoftwareType,DateUTC
2014-01-23 00:00:00,9.2,5.1,30.11,NNW,340,3.0,8.0,83,0.00,,---,0.00,0.00,VWS V14.01,2014-01-23 05:00:00,
2014-01-23 00:01:00,9.2,5.1,30.11,NNW,340,5.0,8.0,83,0.00,,---,0.00,0.00,VWS V14.01,2014-01-23 05:01:00,
2014-01-23 00:06:00,8.9,4.8,30.10,North,350,3.0,9.0,83,0.00,,---,0.00,0.00,VWS V14.01,2014-01-23 05:06:00,
2014-01-23 00:11:00,8.5,4.4,30.11,North,355,4.0,9.0,83,0.00,,---,0.00,0.00,VWS V14.01,2014-01-23 05:11:00,
2014-01-23 00:12:00,8.5,4.4,30.11,North,360,5.0,8.0,83,0.00,,---,0.00,0.00,VWS V14.01,2014-01-23 05:12:00,
2014-01-23 00:16:00,8.4,4.3,30.11,North,360,5.0,6.0,83,0.00,,---,0.00,0.00,VWS V14.01,2014-01-23 05:16:00,
2014-01-23 00:17:00,8.3,4.2,30.11,North,355,8.0,10.0,83,0.00,,---,0.00,0.00,VWS V14.01,2014-01-23 05:17:00,
2014-01-23 00:21:00,8.2,4.1,30.11,NNW,346,10.0,12.0,83,0.00,,---,0.00,0.00,VWS V14.01,2014-01-23 05:21:00,
2014-01-23 00:22:00,8.1,4.0,30.11,NNW,340,5.0,12.0,83,0.00,,---,0.00,0.00,VWS V14.01,2014-01-23 05:22:00,
2014-01-23 00:26:00,8.0,3.9,30.12,NNW,342,2.0,3.0,83,0.00,,---,0.00,0.00,VWS V14.01,2014-01-23 05:26:00,
2014-01-23 00:27:00,7.9,3.8,30.12,North,351,5.0,8.0,83,0.00,,---,0.00,0.00,VWS V14.01,2014-01-23 05:27:00,
2014-01-23 00:31:00,7.8,3.7,30.12,NNW,340,3.0,5.0,83,0.00,,---,0.00,0.00,VWS V14.01,2014-01-23 05:31:00,
2014-01-23 00:32:00,7.7,3.6,30.12,NNW,340,4.0,5.0,83,0.00,,---,0.00,0.00,VWS V14.01,2014-01-23 05:32:00,
2014-01-23 00:36:00,7.6,3.5,30.12,NNW,347,6.0,7.0,83,0.00,,---,0.00,0.00,VWS V14.01,2014-01-23 05:36:00,
2014-01-23 00:37:00,7.6,3.5,30.12,North,349,5.0,10.0,83,0.00,,---,0.00,0.00,VWS V14.01,2014-01-23 05:37:00,
2014-01-23 00:38:00,7.6,3.5,30.12,North,350,3.0,6.0,83,0.00,,---,0.00,0.00,VWS V14.01,2014-01-23 05:38:00,
2014-01-23 00:41:00,7.4,3.3,30.12,North,355,4.0,6.0,83,0.00,,---,0.00,0.00,VWS V14.01,2014-01-23 05:41:00,
2014-01-23 00:42:00,7.4,3.3,30.12,North,355,5.0,6.0,83,0.00,,---,0.00,0.00,VWS V14.01,2014-01-23 05:42:00,
2014-01-23 00:43:00,7.4,3.3,30.12,North,355,5.0,5.0,83,0.00,,---,0.00,0.00,VWS V14.01,2014-01-23 05:43:00,
2014-01-23 00:46:00,7.3,3.2,30.12,North,355,2.0,3.0,83,0.00,,---,0.00,0.00,VWS V14.01,2014-01-23 05:46:00,
2014-01-23 00:47:00,7.3,3.2,30.12,North,355,3.0,3.0,83,0.00,,---,0.00,0.00,VWS V14.01,2014-01-23 05:47:00,
2014-01-23 00:48:00,7.2,3.1,30.12,NNW,346,5.0,5.0,83,0.00,,---,0.00,0.00,VWS V14.01,2014-01-23 05:48:00,
2014-01-23 00:51:00,7.2,3.4,30.13,NNW,347,4.0,5.0,84,0.00,,---,0.00,0.00,VWS V14.01,2014-01-23 05:51:00,
2014-01-23 00:52:00,7.2,3.4,30.13,NNW,348,2.0,5.0,84,0.00,,---,0.00,0.00,VWS V14.01,2014-01-23 05:52:00,
2014-01-23 00:53:00,7.1,3.3,30.13,NNW,341,6.0,7.0,84,0.00,,---,0.00,0.00,VWS V14.01,2014-01-23 05:53:00,
2014-01-23 00:56:00,7.1,3.3,30.12,NNW,344,7.0,7.0,84,0.00,,---,0.00,0.00,VWS V14.01,2014-01-23 05:56:00,
2014-01-23 00:57:00,7.1,3.3,30.12,NNW,346,5.0,9.0,84,0.00,,---,0.00,0.00,VWS V14.01,2014-01-23 05:57:00,
2014-01-23 00:58:00,7.1,3.0,30.13,NNW,343,2.0,5.0,83,0.00,,---,0.00,0.00,VWS V14.01,2014-01-23 05:58:00,
2014-01-23 01:02:00,7.1,3.0,30.13,North,355,4.0,5.0,83,0.00,,---,0.00,0.00,VWS V14.01,2014-01-23 06:02:00,
2014-01-23 01:04:00,6.9,2.8,30.13,North,350,5.0,5.0,83,0.00,,---,0.00,0.00,VWS V14.01,2014-01-23 06:04:00,
2014-01-23 01:07:00,6.9,2.8,30.13,NNW,343,8.0,9.0,83,0.00,,---,0.00,0.00,VWS V14.01,2014-01-23 06:07:00,
2014-01-23 01:08:00,6.9,2.8,30.13,North,5,8.0,8.0,83,0.00,,---,0.00,0.00,VWS V14.01,2014-01-23 06:08:00,
2014-01-23 01:09:00,6.9,2.8,30.13,North,5,10.0,10.0,83,0.00,,---,0.00,0.00,VWS V14.01,2014-01-23 06:09:00,
2014-01-23 01:12:00,6.9,2.8,30.13,NNW,338,3.0,10.0,83,0.00,,---,0.00,0.00,VWS V14.01,2014-01-23 06:12:00,
2014-01-23 01:13:00,6.8,2.7,30.13,North,351,9.0,12.0,83,0.00,,---,0.00,0.00,VWS V14.01,2014-01-23 06:13:00,
2014-01-23 01:14:00,6.8,2.7,30.13,NNW,342,4.0,4.0,83,0.00,,---,0.00,0.00,VWS V14.01,2014-01-23 06:14:00,
2014-01-23 01:17:00,6.7,2.6,30.13,NNW,342,4.0,8.0,83,0.00,,---,0.00,0.00,VWS V14.01,2014-01-23 06:17:00,
2014-01-23 01:18:00,6.7,2.6,30.13,NNW,331,5.0,5.0,83,0.00,,---,0.00,0.00,VWS V14.01,2014-01-23 06:18:00,
2014-01-23 01:19:00,6.7,2.6,30.13,North,355,12.0,12.0,83,0.00,,---,0.00,0.00,VWS V14.01,2014-01-23 06:19:00,
2014-01-23 01:22:00,6.6,2.5,30.14,NNW,346,7.0,7.0,83,0.00,,---,0.00,0.00,VWS V14.01,2014-01-23 06:22:00,
2014-01-23 01:23:00,6.5,2.2,30.14,NNW,346,4.0,5.0,82,0.00,,---,0.00,0.00,VWS V14.01,2014-01-23 06:23:00,
2014-01-23 01:24:00,6.5,2.5,30.14,NNW,347,2.0,4.0,83,0.00,,---,0.00,0.00,VWS V14.01,2014-01-23 06:24:00,
2014-01-23 01:27:00,6.4,2.1,30.14,North,355,7.0,8.0,82,0.00,,---,0.00,0.00,VWS V14.01,2014-01-23 06:27:00,
2014-01-23 01:28:00,6.4,2.3,30.14,NNW,340,4.0,9.0,83,0.00,,---,0.00,0.00,VWS V14.01,2014-01-23 06:28:00,
2014-01-23 01:29:00,6.4,2.3,30.14,NNW,342,4.0,9.0,83,0.00,,---,0.00,0.00,VWS V14.01,2014-01-23 06:29:00,
2014-01-23 01:32:00,6.3,2.0,30.14,NNW,344,3.0,4.0,82,0.00,,---,0.00,0.00,VWS V14.01,2014-01-23 06:32:00,
2014-01-23 01:33:00,6.3,2.0,30.14,NNW,347,5.0,6.0,82,0.00,,---,0.00,0.00,VWS V14.01,2014-01-23 06:33:00,
2014-01-23 01:34:00,6.3,2.0,30.14,NNW,347,6.0,7.0,82,0.00,,---,0.00,0.00,VWS V14.01,2014-01-23 06:34:00,
2014-01-23 01:37:00,6.2,1.9,30.14,North,350,10.0,10.0,82,0.00,,---,0.00,0.00,VWS V14.01,2014-01-23 06:37:00,
2014-01-23 01:38:00,6.1,1.8,30.14,NNW,347,2.0,3.0,82,0.00,,---,0.00,0.00,VWS V14.01,2014-01-23 06:38:00,
2014-01-23 01:39:00,6.1,1.8,30.14,NNW,347,3.0,4.0,82,0.00,,---,0.00,0.00,VWS V14.01,2014-01-23 06:39:00,
2014-01-23 01:40:00,6.1,1.8,30.14,NNW,344,6.0,9.0,82,0.00,,---,0.00,0.00,VWS V14.01,2014-01-23 06:40:00,
2014-01-23 01:42:00,6.0,2.0,30.15,NNW,338,5.0,5.0,83,0.00,,---,0.00,0.00,VWS V14.01,2014-01-23 06:42:00,
2014-01-23 01:43:00,6.0,2.0,30.14,NNW,346,10.0,11.0,83,0.00,,---,0.00,0.00,VWS V14.01,2014-01-23 06:43:00,
2014-01-23 01:44:00,6.0,2.0,30.15,North,351,7.0,7.0,83,0.00,,---,0.00,0.00,VWS V14.01,2014-01-23 06:44:00,
2014-01-23 01:46:00,6.0,2.0,30.15,North,360,5.0,6.0,83,0.00,,---,0.00,0.00,VWS V14.01,2014-01-23 06:46:00,
2014-01-23 01:47:00,5.9,1.9,30.15,North,360,7.0,7.0,83,0.00,,---,0.00,0.00,VWS V14.01,2014-01-23 06:47:00,
2014-01-23 01:48:00,5.9,1.9,30.15,North,355,2.0,7.0,83,0.00,,---,0.00,0.00,VWS V14.01,2014-01-23 06:48:00,
2014-01-23 01:49:00,5.9,1.9,30.15,North,355,3.0,5.0,83,0.00,,---,0.00,0.00,VWS V14.01,2014-01-23 06:49:00,
2014-01-23 01:51:00,5.8,1.8,30.15,North,351,2.0,5.0,83,0.00,,---,0.00,0.00,VWS V14.01,2014-01-23 06:51:00,
2014-01-23 01:52:00,5.8,1.8,30.15,North,5,3.0,5.0,83,0.00,,---,0.00,0.00,VWS V14.01,2014-01-23 06:52:00,
2014-01-23 01:53:00,5.8,1.8,30.15,North,5,3.0,5.0,83,0.00,,---,0.00,0.00,VWS V14.01,2014-01-23 06:53:00,
2014-01-23 01:54:00,5.8,1.8,30.15,North,350,1.0,2.0,83,0.00,,---,0.00,0.00,VWS V14.01,2014-01-23 06:54:00,
2014-01-23 01:56:00,5.7,1.7,30.16,NNW,348,5.0,8.0,83,0.00,,---,0.00,0.00,VWS V14.01,2014-01-23 06:56:00,
2014-01-23 01:57:00,5.7,1.7,30.16,NNW,346,5.0,7.0,83,0.00,,---,0.00,0.00,VWS V14.01,2014-01-23 06:57:00,
2014-01-23 01:58:00,5.7,1.7,30.16,NNW,347,2.0,7.0,83,0.00,,---,0.00,0.00,VWS V14.01,2014-01-23 06:58:00,
2014-01-23 01:59:00,5.6,1.6,30.15,NNW,347,3.0,5.0,83,0.00,,---,0.00,0.00,VWS V14.01,2014-01-23 06:59:00,
2014-01-23 02:00:00,5.6,1.3,30.16,NNW,347,2.0,3.0,82,0.00,,---,0.00,0.00,VWS V14.01,2014-01-23 07:00:00,
2014-01-23 02:01:00,5.5,1.2,30.16,NNW,342,3.0,6.0,82,0.00,,---,0.00,0.00,VWS V14.01,2014-01-23 07:01:00,
2014-01-23 02:02:00,5.5,1.2,30.16,NNW,343,3.0,4.0,82,0.00,,---,0.00,0.00,VWS V14.01,2014-01-23 07:02:00,
2014-01-23 02:03:00,5.5,1.2,30.16,NNW,346,4.0,8.0,82,0.00,,---,0.00,0.00,VWS V14.01,2014-01-23 07:03:00,
2014-01-23 02:04:00,5.5,1.2,30.16,NNW,345,3.0,4.0,82,0.00,,---,0.00,0.00,VWS V14.01,2014-01-23 07:04:00,
2014-01-23 02:05:00,5.5,1.2,30.16,NNW,345,6.0,6.0,82,0.00,,---,0.00,0.00,VWS V14.01,2014-01-23 07:05:00,
2014-01-23 02:07:00,5.4,1.1,30.16,North,349,2.0,7.0,82,0.00,,---,0.00,0.00,VWS V14.01,2014-01-23 07:07:00,
2014-01-23 02:08:00,5.4,1.1,30.16,NNW,348,2.0,8.0,82,0.00,,---,0.00,0.00,VWS V14.01,2014-01-23 07:08:00,
2014-01-23 02:09:00,5.4,1.1,30.16,North,355,4.0,7.0,82,0.00,,---,0.00,0.00,VWS V14.01,2014-01-23 07:09:00,
2014-01-23 02:10:00,5.4,1.1,30.16,NNW,328,2.0,9.0,82,0.00,,---,0.00,0.00,VWS V14.01,2014-01-23 07:10:00,
2014-01-23 02:12:00,5.3,1.3,30.16,North,355,7.0,9.0,83,0.00,,---,0.00,0.00,VWS V14.01,2014-01-23 07:12:00,
2014-01-23 02:13:00,5.4,1.4,30.17,NNW,346,4.0,5.0,83,0.00,,---,0.00,0.00,VWS V14.01,2014-01-23 07:13:00,
2014-01-23 02:14:00,5.3,1.0,30.17,NNW,342,3.0,6.0,82,0.00,,---,0.00,0.00,VWS V14.01,2014-01-23 07:14:00,
2014-01-23 02:15:00,5.3,1.0,30.17,NNW,340,2.0,6.0,82,0.00,,---,0.00,0.00,VWS V14.01,2014-01-23 07:15:00,
2014-01-23 02:17:00,5.3,1.0,30.17,NNW,341,2.0,6.0,82,0.00,,---,0.00,0.00,VWS V14.01,2014-01-23 07:17:00,
2014-01-23 02:18:00,5.2,0.9,30.17,North,355,8.0,8.0,82,0.00,,---,0.00,0.00,VWS V14.01,2014-01-23 07:18:00,
2014-01-23 02:19:00,5.1,0.8,30.17,North,351,0.0,4.0,82,0.00,,---,0.00,0.00,VWS V14.01,2014-01-23 07:19:00,
2014-01-23 02:21:00,5.1,0.8,30.17,North,355,3.0,6.0,82,0.00,,---,0.00,0.00,VWS V14.01,2014-01-23 07:21:00,
2014-01-23 02:22:00,5.0,0.7,30.17,North,355,5.0,8.0,82,0.00,,---,0.00,0.00,VWS V14.01,2014-01-23 07:22:00,
2014-01-23 02:23:00,5.0,0.7,30.17,North,351,4.0,4.0,82,0.00,,---,0.00,0.00,VWS V14.01,2014-01-23 07:23:00,
2014-01-23 02:24:00,5.0,0.7,30.17,NNW,345,2.0,7.0,82,0.00,,---,0.00,0.00,VWS V14.01,2014-01-23 07:24:00,
2014-01-23 02:26:00,5.0,0.7,30.17,NNW,344,4.0,6.0,82,0.00,,---,0.00,0.00,VWS V14.01,2014-01-23 07:26:00,
2014-01-23 02:27:00,4.9,0.6,30.18,North,355,2.0,2.0,82,0.00,,---,0.00,0.00,VWS V14.01,2014-01-23 07:27:00,
2014-01-23 02:28:00,4.9,0.6,30.17,North,350,5.0,5.0,82,0.00,,---,0.00,0.00,VWS V14.01,2014-01-23 07:28:00,
2014-01-23 02:30:00,4.9,0.6,30.18,North,350,2.0,2.0,82,0.00,,---,0.00,0.00,VWS V14.01,2014-01-23 07:30:00,
2014-01-23 02:31:00,4.9,0.6,30.18,North,349,2.0,2.0,82,0.00,,---,0.00,0.00,VWS V14.01,2014-01-23 07:31:00,
2014-01-23 02:32:00,4.9,0.6,30.18,North,349,2.0,2.0,82,0.00,,---,0.00,0.00,VWS V14.01,2014-01-23 07:32:00,
2014-01-23 02:33:00,4.9,0.6,30.18,North,349,2.0,2.0,82,0.00,,---,0.00,0.00,VWS V14.01,2014-01-23 07:33:00,
2014-01-23 02:35:00,4.7,0.4,30.18,North,350,3.0,4.0,82,0.00,,---,0.00,0.00,VWS V14.01,2014-01-23 07:35:00,
2014-01-23 02:36:00,4.7,0.4,30.18,NNW,348,4.0,8.0,82,0.00,,---,0.00,0.00,VWS V14.01,2014-01-23 07:36:00,
2014-01-23 02:37:00,4.7,0.4,30.18,NNW,348,2.0,4.0,82,0.00,,---,0.00,0.00,VWS V14.01,2014-01-23 07:37:00,
2014-01-23 02:38:00,4.7,0.4,30.18,NNW,348,2.0,2.0,82,0.00,,---,0.00,0.00,VWS V14.01,2014-01-23 07:38:00,
2014-01-23 02:39:00,4.7,0.2,30.18,North,351,3.0,4.0,81,0.00,,---,0.00,0.00,VWS V14.01,2014-01-23 07:39:00,
2014-01-23 02:40:00,4.6,0.3,30.18,North,350,2.0,4.0,82,0.00,,---,0.00,0.00,VWS V14.01,2014-01-23 07:40:00,
2014-01-23 02:41:00,4.6,0.1,30.18,North,350,3.0,4.0,81,0.00,,---,0.00,0.00,VWS V14.01,2014-01-23 07:41:00,
2014-01-23 02:42:00,4.6,0.1,30.18,North,350,4.0,4.0,81,0.00,,---,0.00,0.00,VWS V14.01,2014-01-23 07:42:00,
2014-01-23 02:43:00,4.5,0.0,30.18,North,355,5.0,5.0,81,0.00,,---,0.00,0.00,VWS V14.01,2014-01-23 07:43:00,
2014-01-23 02:44:00,4.5,0.0,30.18,North,351,4.0,10.0,81,0.00,,---,0.00,0.00,VWS V14.01,2014-01-23 07:44:00,
2014-01-23 02:45:00,4.5,0.0,30.18,North,355,4.0,4.0,81,0.00,,---,0.00,0.00,VWS V14.01,2014-01-23 07:45:00,
2014-01-23 02:46:00,4.5,0.0,30.18,North,355,2.0,5.0,81,0.00,,---,0.00,0.00,VWS V14.01,2014-01-23 07:46:00,
2014-01-23 02:47:00,4.5,0.0,30.18,North,355,2.0,3.0,81,0.00,,---,0.00,0.00,VWS V14.01,2014-01-23 07:47:00,
2014-01-23 02:48:00,4.4,-0.1,30.18,North,360,11.0,11.0,81,0.00,,---,0.00,0.00,VWS V14.01,2014-01-23 07:48:00,
2014-01-23 02:49:00,4.4,-0.1,30.18,North,355,6.0,11.0,81,0.00,,---,0.00,0.00,VWS V14.01,2014-01-23 07:49:00,
2014-01-23 02:50:00,4.4,-0.4,30.19,NNW,346,3.0,4.0,80,0.00,,---,0.00,0.00,VWS V14.01,2014-01-23 07:50:00,
2014-01-23 02:52:00,4.4,-0.4,30.19,NNW,346,4.0,5.0,80,0.00,,---,0.00,0.00,VWS V14.01,2014-01-23 07:52:00,
2014-01-23 02:53:00,4.4,-0.4,30.19,NNW,347,6.0,7.0,80,0.00,,---,0.00,0.00,VWS V14.01,2014-01-23 07:53:00,
2014-01-23 02:54:00,4.4,-0.4,30.19,North,350,5.0,6.0,80,0.00,,---,0.00,0.00,VWS V14.01,2014-01-23 07:54:00,
2014-01-23 02:56:00,4.4,-0.4,30.19,NNW,339,3.0,8.0,80,0.00,,---,0.00,0.00,VWS V14.01,2014-01-23 07:56:00,
2014-01-23 02:57:00,4.4,-0.4,30.19,NNW,345,4.0,8.0,80,0.00,,---,0.00,0.00,VWS V14.01,2014-01-23 07:57:00,
2014-01-23 02:58:00,4.3,-0.8,30.19,North,355,5.0,12.0,79,0.00,,---,0.00,0.00,VWS V14.01,2014-01-23 07:58:00,
2014-01-23 02:59:00,4.3,-0.8,30.19,North,355,7.0,7.0,79,0.00,,---,0.00,0.00,VWS V14.01,2014-01-23 07:59:00,
2014-01-23 03:01:00,4.3,-0.8,30.19,NNW,340,3.0,6.0,79,0.00,,---,0.00,0.00,VWS V14.01,2014-01-23 08:01:00,
2014-01-23 03:02:00,4.2,-0.9,30.19,North,351,4.0,6.0,79,0.00,,---,0.00,0.00,VWS V14.01,2014-01-23 08:02:00,
2014-01-23 03:03:00,4.2,-0.9,30.19,NNW,346,3.0,3.0,79,0.00,,---,0.00,0.00,VWS V14.01,2014-01-23 08:03:00,
2014-01-23 03:04:00,4.2,-0.9,30.19,NNW,332,3.0,4.0,79,0.00,,---,0.00,0.00,VWS V14.01,2014-01-23 08:04:00,
2014-01-23 03:06:00,4.1,-0.9,30.19,NNW,338,6.0,6.0,79,0.00,,---,0.00,0.00,VWS V14.01,2014-01-23 08:06:00,
2014-01-23 03:07:00,4.1,-1.2,30.19,NNW,338,6.0,6.0,78,0.00,,---,0.00,0.00,VWS V14.01,2014-01-23 08:07:00,
2014-01-23 03:08:00,4.1,-1.2,30.20,NNW,344,3.0,4.0,78,0.00,,---,0.00,0.00,VWS V14.01,2014-01-23 08:08:00,
2014-01-23 03:09:00,4.0,-1.3,30.20,NNW,345,3.0,5.0,78,0.00,,---,0.00,0.00,VWS V14.01,2014-01-23 08:09:00,
2014-01-23 03:12:00,3.9,-1.4,30.20,North,355,2.0,2.0,78,0.00,,---,0.00,0.00,VWS V14.01,2014-01-23 08:12:00,
2014-01-23 03:13:00,3.9,-1.4,30.20,North,355,3.0,6.0,78,0.00,,---,0.00,0.00,VWS V14.01,2014-01-23 08:13:00,
2014-01-23 03:14:00,3.9,-1.4,30.20,North,355,1.0,3.0,78,0.00,,---,0.00,0.00,VWS V14.01,2014-01-23 08:14:00,
2014-01-23 03:17:00,3.7,-1.6,30.20,North,355,2.0,4.0,78,0.00,,---,0.00,0.00,VWS V14.01,2014-01-23 08:17:00,
2014-01-23 03:18:00,3.7,-1.6,30.20,North,355,2.0,4.0,78,0.00,,---,0.00,0.00,VWS V14.01,2014-01-23 08:18:00,
2014-01-23 03:19:00,3.7,-1.6,30.21,North,355,1.0,3.0,78,0.00,,---,0.00,0.00,VWS V14.01,2014-01-23 08:19:00,
2014-01-23 03:22:00,3.6,-1.7,30.21,North,355,9.0,9.0,78,0.00,,---,0.00,0.00,VWS V14.01,2014-01-23 08:22:00,
2014-01-23 03:23:00,3.6,-1.7,30.21,North,11,4.0,9.0,78,0.00,,---,0.00,0.00,VWS V14.01,2014-01-23 08:23:00,
2014-01-23 03:24:00,3.6,-1.7,30.21,North,9,2.0,3.0,78,0.00,,---,0.00,0.00,VWS V14.01,2014-01-23 08:24:00,
2014-01-23 03:27:00,3.5,-1.8,30.21,NNW,342,10.0,10.0,78,0.00,,---,0.00,0.00,VWS V14.01,2014-01-23 08:27:00,
2014-01-23 03:28:00,3.5,-1.8,30.21,NNW,347,4.0,10.0,78,0.00,,---,0.00,0.00,VWS V14.01,2014-01-23 08:28:00,
2014-01-23 03:29:00,3.5,-1.8,30.21,NNW,345,3.0,10.0,78,0.00,,---,0.00,0.00,VWS V14.01,2014-01-23 08:29:00,
2014-01-23 03:32:00,3.5,-2.1,30.21,North,360,2.0,5.0,77,0.00,,---,0.00,0.00,VWS V14.01,2014-01-23 08:32:00,
2014-01-23 03:33:00,3.5,-2.1,30.21,North,360,2.0,5.0,77,0.00,,---,0.00,0.00,VWS V14.01,2014-01-23 08:33:00,
2014-01-23 03:34:00,3.4,-2.2,30.21,North,360,4.0,5.0,77,0.00,,---,0.00,0.00,VWS V14.01,2014-01-23 08:34:00,
2014-01-23 03:38:00,3.3,-2.3,30.21,North,355,3.0,5.0,77,0.00,,---,0.00,0.00,VWS V14.01,2014-01-23 08:38:00,
2014-01-23 03:39:00,3.3,-2.3,30.21,North,360,2.0,5.0,77,0.00,,---,0.00,0.00,VWS V14.01,2014-01-23 08:39:00,
2014-01-23 03:43:00,3.2,-2.4,30.22,North,360,5.0,6.0,77,0.00,,---,0.00,0.00,VWS V14.01,2014-01-23 08:43:00,
2014-01-23 03:44:00,3.1,-2.5,30.22,North,5,2.0,5.0,77,0.00,,---,0.00,0.00,VWS V14.01,2014-01-23 08:44:00,
2014-01-23 03:48:00,3.0,-2.6,30.22,NNW,348,7.0,7.0,77,0.00,,---,0.00,0.00,VWS V14.01,2014-01-23 08:48:00,
2014-01-23 03:49:00,3.0,-2.6,30.22,North,350,2.0,7.0,77,0.00,,---,0.00,0.00,VWS V14.01,2014-01-23 08:49:00,
2014-01-23 03:53:00,2.9,-2.7,30.22,NNW,346,1.0,4.0,77,0.00,,---,0.00,0.00,VWS V14.01,2014-01-23 08:53:00,
2014-01-23 03:54:00,2.9,-2.7,30.22,NNW,346,5.0,5.0,77,0.00,,---,0.00,0.00,VWS V14.01,2014-01-23 08:54:00,
2014-01-23 03:55:00,2.8,-2.8,30.23,NNW,341,7.0,7.0,77,0.00,,---,0.00,0.00,VWS V14.01,2014-01-23 08:55:00,
2014-01-23 03:58:00,2.8,-2.8,30.23,NNW,348,5.0,5.0,77,0.00,,---,0.00,0.00,VWS V14.01,2014-01-23 08:58:00,
2014-01-23 03:59:00,2.8,-2.8,30.23,North,350,4.0,8.0,77,0.00,,---,0.00,0.00,VWS V14.01,2014-01-23 08:59:00,
2014-01-23 04:00:00,2.8,-2.8,30.23,NNE,12,2.0,3.0,77,0.00,,---,0.00,0.00,VWS V14.01,2014-01-23 09:00:00,
2014-01-23 04:03:00,2.8,-2.8,30.23,NNW,340,4.0,6.0,77,0.00,,---,0.00,0.00,VWS V14.01,2014-01-23 09:03:00,
2014-01-23 04:04:00,2.8,-2.8,30.23,NNW,344,4.0,4.0,77,0.00,,---,0.00,0.00,VWS V14.01,2014-01-23 09:04:00,
2014-01-23 04:05:00,2.7,-2.9,30.23,NNW,342,5.0,8.0,77,0.00,,---,0.00,0.00,VWS V14.01,2014-01-23 09:05:00,
2014-01-23 04:08:00,2.7,-2.9,30.23,NNW,345,4.0,7.0,77,0.00,,---,0.00,0.00,VWS V14.01,2014-01-23 09:08:00,
2014-01-23 04:09:00,2.7,-2.9,30.23,NNW,344,5.0,5.0,77,0.00,,---,0.00,0.00,VWS V14.01,2014-01-23 09:09:00,
2014-01-23 04:10:00,2.6,-3.0,30.23,NNW,340,6.0,10.0,77,0.00,,---,0.00,0.00,VWS V14.01,2014-01-23 09:10:00,
2014-01-23 04:14:00,2.6,-3.0,30.24,NNW,341,7.0,10.0,77,0.00,,---,0.00,0.00,VWS V14.01,2014-01-23 09:14:00,
2014-01-23 04:15:00,2.6,-3.0,30.24,NNW,341,7.0,7.0,77,0.00,,---,0.00,0.00,VWS V14.01,2014-01-23 09:15:00,
2014-01-23 04:19:00,2.4,-3.2,30.24,North,351,4.0,7.0,77,0.00,,---,0.00,0.00,VWS V14.01,2014-01-23 09:19:00,
2014-01-23 04:20:00,2.4,-3.2,30.24,NNW,338,5.0,7.0,77,0.00,,---,0.00,0.00,VWS V14.01,2014-01-23 09:20:00,
2014-01-23 04:24:00,2.3,-3.5,30.24,NNW,348,5.0,8.0,76,0.00,,---,0.00,0.00,VWS V14.01,2014-01-23 09:24:00,
2014-01-23 04:25:00,2.3,-3.5,30.24,NW,319,11.0,14.0,76,0.00,,---,0.00,0.00,VWS V14.01,2014-01-23 09:25:00,
2014-01-23 04:29:00,2.2,-3.6,30.24,North,360,4.0,8.0,76,0.00,,---,0.00,0.00,VWS V14.01,2014-01-23 09:29:00,
2014-01-23 04:30:00,2.2,-3.6,30.24,North,5,4.0,6.0,76,0.00,,---,0.00,0.00,VWS V14.01,2014-01-23 09:30:00,
2014-01-23 04:34:00,1.9,-4.2,30.24,North,350,2.0,7.0,75,0.00,,---,0.00,0.00,VWS V14.01,2014-01-23 09:34:00,
2014-01-23 04:35:00,1.9,-4.2,30.25,North,351,5.0,6.0,75,0.00,,---,0.00,0.00,VWS V14.01,2014-01-23 09:35:00,
2014-01-23 04:39:00,1.7,-4.1,30.25,North,355,10.0,10.0,76,0.00,,---,0.00,0.00,VWS V14.01,2014-01-23 09:39:00,
2014-01-23 04:40:00,1.7,-4.1,30.25,North,355,3.0,3.0,76,0.00,,---,0.00,0.00,VWS V14.01,2014-01-23 09:40:00,
2014-01-23 04:44:00,1.5,-4.3,30.25,North,355,9.0,9.0,76,0.00,,---,0.00,0.00,VWS V14.01,2014-01-23 09:44:00,
2014-01-23 04:45:00,1.5,-4.3,30.25,NNW,336,1.0,5.0,76,0.00,,---,0.00,0.00,VWS V14.01,2014-01-23 09:45:00,
2014-01-23 04:46:00,1.4,-4.4,30.25,NNW,336,5.0,5.0,76,0.00,,---,0.00,0.00,VWS V14.01,2014-01-23 09:46:00,
2014-01-23 04:50:00,1.3,-4.5,30.25,NNW,342,5.0,11.0,76,0.00,,---,0.00,0.00,VWS V14.01,2014-01-23 09:50:00,
2014-01-23 04:51:00,1.2,-4.9,30.26,NNW,344,2.0,10.0,75,0.00,,---,0.00,0.00,VWS V14.01,2014-01-23 09:51:00,
2014-01-23 04:55:00,1.1,-5.0,30.26,NNW,342,5.0,6.0,75,0.00,,---,0.00,0.00,VWS V14.01,2014-01-23 09:55:00,
2014-01-23 04:56:00,1.0,-5.1,30.26,North,355,5.0,11.0,75,0.00,,---,0.00,0.00,VWS V14.01,2014-01-23 09:56:00,
2014-01-23 05:00:00,0.9,-5.2,30.26,NNW,348,2.0,2.0,75,0.00,,---,0.00,0.00,VWS V14.01,2014-01-23 10:00:00,
2014-01-23 05:01:00,0.9,-5.2,30.26,North,350,5.0,5.0,75,0.00,,---,0.00,0.00,VWS V14.01,2014-01-23 10:01:00,
2014-01-23 05:05:00,0.7,-5.3,30.27,North,349,4.0,4.0,75,0.00,,---,0.00,0.00,VWS V14.01,2014-01-23 10:05:00,
2014-01-23 05:06:00,0.7,-5.3,30.27,North,350,3.0,5.0,75,0.00,,---,0.00,0.00,VWS V14.01,2014-01-23 10:06:00,
2014-01-23 05:10:00,0.6,-5.4,30.27,NNW,340,5.0,10.0,75,0.00,,---,0.00,0.00,VWS V14.01,2014-01-23 10:10:00,
2014-01-23 05:11:00,0.6,-5.4,30.27,NNW,346,3.0,10.0,75,0.00,,---,0.00,0.00,VWS V14.01,2014-01-23 10:11:00,
2014-01-23 05:15:00,0.6,-5.4,30.27,North,5,1.0,10.0,75,0.00,,---,0.00,0.00,VWS V14.01,2014-01-23 10:15:00,
2014-01-23 05:16:00,0.6,-5.4,30.27,North,351,3.0,10.0,75,0.00,,---,0.00,0.00,VWS V14.01,2014-01-23 10:16:00,
2014-01-23 05:20:00,0.5,-5.5,30.27,North,355,7.0,9.0,75,0.00,,---,0.00,0.00,VWS V14.01,2014-01-23 10:20:00,
2014-01-23 05:21:00,0.5,-5.5,30.27,North,355,2.0,9.0,75,0.00,,---,0.00,0.00,VWS V14.01,2014-01-23 10:21:00,
2014-01-23 05:25:00,0.4,-5.6,30.28,NNW,344,5.0,9.0,75,0.00,,---,0.00,0.00,VWS V14.01,2014-01-23 10:25:00,
2014-01-23 05:26:00,0.4,-5.6,30.28,NNW,345,2.0,3.0,75,0.00,,---,0.00,0.00,VWS V14.01,2014-01-23 10:26:00,
2014-01-23 05:30:00,0.2,-5.6,30.28,NNW,344,0.0,1.0,76,0.00,,---,0.00,0.00,VWS V14.01,2014-01-23 10:30:00,
2014-01-23 05:31:00,0.2,-5.6,30.28,NNW,344,3.0,3.0,76,0.00,,---,0.00,0.00,VWS V14.01,2014-01-23 10:31:00,
2014-01-23 05:35:00,0.1,-5.8,30.28,NNW,334,0.0,7.0,76,0.00,,---,0.00,0.00,VWS V14.01,2014-01-23 10:35:00,
2014-01-23 05:36:00,0.1,-5.8,30.28,NNW,336,5.0,7.0,76,0.00,,---,0.00,0.00,VWS V14.01,2014-01-23 10:36:00,
2014-01-23 05:37:00,0.1,-5.8,30.28,North,355,7.0,9.0,76,0.00,,---,0.00,0.00,VWS V14.01,2014-01-23 10:37:00,
2014-01-23 05:40:00,-0.1,-5.8,30.28,NNW,347,3.0,6.0,76,0.00,,---,0.00,0.00,VWS V14.01,2014-01-23 10:40:00,
2014-01-23 05:41:00,-0.1,-5.8,30.28,North,350,5.0,7.0,76,0.00,,---,0.00,0.00,VWS V14.01,2014-01-23 10:41:00,
2014-01-23 05:42:00,-0.2,-5.9,30.28,North,350,4.0,4.0,76,0.00,,---,0.00,0.00,VWS V14.01,2014-01-23 10:42:00,
2014-01-23 05:45:00,-0.3,-6.0,30.29,NNW,346,2.0,3.0,76,0.00,,---,0.00,0.00,VWS V14.01,2014-01-23 10:45:00,
2014-01-23 05:46:00,-0.3,-6.0,30.29,North,351,8.0,8.0,76,0.00,,---,0.00,0.00,VWS V14.01,2014-01-23 10:46:00,
2014-01-23 05:47:00,-0.3,-6.0,30.29,North,349,2.0,3.0,76,0.00,,---,0.00,0.00,VWS V14.01,2014-01-23 10:47:00,
2014-01-23 05:50:00,-0.4,-5.9,30.29,NNW,336,3.0,7.0,77,0.00,,---,0.00,0.00,VWS V14.01,2014-01-23 10:50:00,
2014-01-23 05:51:00,-0.5,-6.0,30.29,NNW,338,5.0,6.0,77,0.00,,---,0.00,0.00,VWS V14.01,2014-01-23 10:51:00,
2014-01-23 05:52:00,-0.5,-6.0,30.29,NNW,338,3.0,6.0,77,0.00,,---,0.00,0.00,VWS V14.01,2014-01-23 10:52:00,
2014-01-23 05:55:00,-0.6,-6.1,30.29,NNW,348,2.0,3.0,77,0.00,,---,0.00,0.00,VWS V14.01,2014-01-23 10:55:00,
2014-01-23 05:56:00,-0.7,-6.2,30.29,NNW,348,3.0,4.0,77,0.00,,---,0.00,0.00,VWS V14.01,2014-01-23 10:56:00,
2014-01-23 05:57:00,-0.7,-6.2,30.30,NNW,348,3.0,3.0,77,0.00,,---,0.00,0.00,VWS V14.01,2014-01-23 10:57:00,
2014-01-23 06:00:00,-0.9,-6.4,30.30,NNW,348,3.0,9.0,77,0.00,,---,0.00,0.00,VWS V14.01,2014-01-23 11:00:00,
2014-01-23 06:01:00,-0.9,-6.4,30.30,NNW,346,8.0,11.0,77,0.00,,---,0.00,0.00,VWS V14.01,2014-01-23 11:01:00,
2014-01-23 06:02:00,-0.9,-6.4,30.30,North,349,5.0,6.0,77,0.00,,---,0.00,0.00,VWS V14.01,2014-01-23 11:02:00,
2014-01-23 06:03:00,-0.9,-6.4,30.30,North,349,4.0,4.0,77,0.00,,---,0.00,0.00,VWS V14.01,2014-01-23 11:03:00,
2014-01-23 06:05:00,-1.0,-6.5,30.30,NNW,344,2.0,6.0,77,0.00,,---,0.00,0.00,VWS V14.01,2014-01-23 11:05:00,
2014-01-23 06:06:00,-1.0,-6.5,30.30,NNW,348,7.0,7.0,77,0.00,,---,0.00,0.00,VWS V14.01,2014-01-23 11:06:00,
2014-01-23 06:07:00,-1.0,-6.5,30.30,NNW,342,2.0,5.0,77,0.00,,---,0.00,0.00,VWS V14.01,2014-01-23 11:07:00,
2014-01-23 06:08:00,-1.0,-6.5,30.30,NNW,342,2.0,3.0,77,0.00,,---,0.00,0.00,VWS V14.01,2014-01-23 11:08:00,
2014-01-23 06:10:00,-1.0,-6.5,30.30,NNW,346,1.0,9.0,77,0.00,,---,0.00,0.00,VWS V14.01,2014-01-23 11:10:00,
2014-01-23 06:11:00,-1.1,-6.6,30.30,NNW,344,4.0,6.0,77,0.00,,---,0.00,0.00,VWS V14.01,2014-01-23 11:11:00,
2014-01-23 06:12:00,-1.1,-6.6,30.30,NNW,344,4.0,4.0,77,0.00,,---,0.00,0.00,VWS V14.01,2014-01-23 11:12:00,
2014-01-23 06:13:00,-1.1,-6.6,30.30,NNW,346,5.0,5.0,77,0.00,,---,0.00,0.00,VWS V14.01,2014-01-23 11:13:00,
2014-01-23 06:15:00,-1.1,-6.6,30.30,NNW,348,4.0,4.0,77,0.00,,---,0.00,0.00,VWS V14.01,2014-01-23 11:15:00,
2014-01-23 06:16:00,-1.2,-6.7,30.30,NNW,346,2.0,5.0,77,0.00,,---,0.00,0.00,VWS V14.01,2014-01-23 11:16:00,
2014-01-23 06:17:00,-1.2,-6.7,30.30,NNW,346,5.0,5.0,77,0.00,,---,0.00,0.00,VWS V14.01,2014-01-23 11:17:00,
2014-01-23 06:19:00,-1.2,-6.7,30.30,North,355,3.0,3.0,77,0.00,,---,0.00,0.00,VWS V14.01,2014-01-23 11:19:00,
2014-01-23 06:20:00,-1.2,-6.7,30.31,NNW,344,3.0,7.0,77,0.00,,---,0.00,0.00,VWS V14.01,2014-01-23 11:20:00,
2014-01-23 06:21:00,-1.2,-6.7,30.31,NNW,344,2.0,6.0,77,0.00,,---,0.00,0.00,VWS V14.01,2014-01-23 11:21:00,
2014-01-23 06:22:00,-1.2,-6.7,30.31,NNW,344,0.0,1.0,77,0.00,,---,0.00,0.00,VWS V14.01,2014-01-23 11:22:00,
2014-01-23 06:24:00,-1.2,-6.7,30.31,NNW,339,2.0,2.0,77,0.00,,---,0.00,0.00,VWS V14.01,2014-01-23 11:24:00,
2014-01-23 06:25:00,-1.2,-6.7,30.31,NNW,339,1.0,2.0,77,0.00,,---,0.00,0.00,VWS V14.01,2014-01-23 11:25:00,
2014-01-23 06:26:00,-1.3,-6.8,30.31,NNW,340,5.0,5.0,77,0.00,,---,0.00,0.00,VWS V14.01,2014-01-23 11:26:00,
2014-01-23 06:27:00,-1.3,-6.8,30.31,NNW,340,2.0,6.0,77,0.00,,---,0.00,0.00,VWS V14.01,2014-01-23 11:27:00,
2014-01-23 06:28:00,-1.3,-6.8,30.31,NNW,341,5.0,6.0,77,0.00,,---,0.00,0.00,VWS V14.01,2014-01-23 11:28:00,
2014-01-23 06:29:00,-1.3,-6.8,30.32,NNW,344,4.0,9.0,77,0.00,,---,0.00,0.00,VWS V14.01,2014-01-23 11:29:00,
2014-01-23 06:30:00,-1.3,-6.8,30.32,NNW,344,5.0,5.0,77,0.00,,---,0.00,0.00,VWS V14.01,2014-01-23 11:30:00,
2014-01-23 06:31:00,-1.3,-6.8,30.32,NNW,344,2.0,4.0,77,0.00,,---,0.00,0.00,VWS V14.01,2014-01-23 11:31:00,
2014-01-23 06:32:00,-1.4,-6.8,30.32,NNW,344,2.0,2.0,77,0.00,,---,0.00,0.00,VWS V14.01,2014-01-23 11:32:00,
2014-01-23 06:33:00,-1.4,-7.1,30.32,NNW,344,1.0,5.0,76,0.00,,---,0.00,0.00,VWS V14.01,2014-01-23 11:33:00,
2014-01-23 06:34:00,-1.4,-7.1,30.32,NNW,344,2.0,2.0,76,0.00,,---,0.00,0.00,VWS V14.01,2014-01-23 11:34:00,
2014-01-23 06:35:00,-1.4,-7.1,30.32,North,360,0.0,9.0,76,0.00,,---,0.00,0.00,VWS V14.01,2014-01-23 11:35:00,
2014-01-23 06:37:00,-1.5,-7.2,30.32,North,355,3.0,6.0,76,0.00,,---,0.00,0.00,VWS V14.01,2014-01-23 11:37:00,
2014-01-23 06:38:00,-1.5,-6.9,30.32,North,355,5.0,5.0,77,0.00,,---,0.00,0.00,VWS V14.01,2014-01-23 11:38:00,
2014-01-23 06:40:00,-1.6,-7.0,30.32,North,349,6.0,6.0,77,0.00,,---,0.00,0.00,VWS V14.01,2014-01-23 11:40:00,
2014-01-23 06:42:00,-1.6,-7.0,30.32,NNW,348,9.0,10.0,77,0.00,,---,0.00,0.00,VWS V14.01,2014-01-23 11:42:00,
2014-01-23 06:44:00,-1.6,-7.0,30.33,NNW,348,2.0,2.0,77,0.00,,---,0.00,0.00,VWS V14.01,2014-01-23 11:44:00,
2014-01-23 06:45:00,-1.6,-7.0,30.33,North,350,7.0,8.0,77,0.00,,---,0.00,0.00,VWS V14.01,2014-01-23 11:45:00,
2014-01-23 06:47:00,-1.7,-7.4,30.33,NNW,338,5.0,5.0,76,0.00,,---,0.00,0.00,VWS V14.01,2014-01-23 11:47:00,
2014-01-23 06:48:00,-1.7,-7.4,30.33,NNW,345,2.0,8.0,76,0.00,,---,0.00,0.00,VWS V14.01,2014-01-23 11:48:00,
2014-01-23 06:49:00,-1.7,-7.4,30.33,NNW,345,1.0,2.0,76,0.00,,---,0.00,0.00,VWS V14.01,2014-01-23 11:49:00,
2014-01-23 06:50:00,-1.7,-7.4,30.33,NNW,345,3.0,3.0,76,0.00,,---,0.00,0.00,VWS V14.01,2014-01-23 11:50:00,
2014-01-23 06:52:00,-1.8,-7.5,30.33,North,349,1.0,3.0,76,0.00,,---,0.00,0.00,VWS V14.01,2014-01-23 11:52:00,
2014-01-23 06:53:00,-1.8,-7.5,30.33,North,349,3.0,3.0,76,0.00,,---,0.00,0.00,VWS V14.01,2014-01-23 11:53:00,
2014-01-23 06:55:00,-1.9,-7.6,30.33,North,349,3.0,5.0,76,0.00,,---,0.00,0.00,VWS V14.01,2014-01-23 11:55:00,
2014-01-23 06:57:00,-1.9,-7.6,30.33,NNW,340,3.0,4.0,76,0.00,,---,0.00,0.00,VWS V14.01,2014-01-23 11:57:00,
2014-01-23 06:58:00,-1.9,-7.3,30.33,NNW,342,4.0,5.0,77,0.00,,---,0.00,0.00,VWS V14.01,2014-01-23 11:58:00,
2014-01-23 07:00:00,-1.9,-7.3,30.34,NNW,344,4.0,6.0,77,0.00,,---,0.00,0.00,VWS V14.01,2014-01-23 12:00:00,
2014-01-23 07:02:00,-1.9,-7.3,30.34,NNW,346,3.0,7.0,77,0.00,,---,0.00,0.00,VWS V14.01,2014-01-23 12:02:00,
2014-01-23 07:03:00,-2.0,-7.7,30.34,NNW,345,4.0,7.0,76,0.00,,---,0.00,0.00,VWS V14.01,2014-01-23 12:03:00,
2014-01-23 07:04:00,-2.0,-7.4,30.34,NNW,346,6.0,10.0,77,0.00,,---,0.00,0.00,VWS V14.01,2014-01-23 12:04:00,
2014-01-23 07:05:00,-2.0,-7.4,30.34,NNW,344,4.0,4.0,77,0.00,,---,0.00,0.00,VWS V14.01,2014-01-23 12:05:00,
2014-01-23 07:06:00,-2.0,-7.4,30.34,NNW,346,1.0,6.0,77,0.00,,---,0.00,0.00,VWS V14.01,2014-01-23 12:06:00,
2014-01-23 07:07:00,-2.0,-7.7,30.34,NNW,348,5.0,6.0,76,0.00,,---,0.00,0.00,VWS V14.01,2014-01-23 12:07:00,
2014-01-23 07:08:00,-2.0,-7.7,30.34,NNW,348,3.0,4.0,76,0.00,,---,0.00,0.00,VWS V14.01,2014-01-23 12:08:00,
2014-01-23 07:09:00,-2.1,-7.5,30.34,North,349,3.0,8.0,77,0.00,,---,0.00,0.00,VWS V14.01,2014-01-23 12:09:00,
2014-01-23 07:10:00,-2.1,-7.5,30.35,North,349,4.0,4.0,77,0.00,,---,0.00,0.00,VWS V14.01,2014-01-23 12:10:00,
2014-01-23 07:11:00,-2.1,-7.5,30.35,North,349,0.0,5.0,77,0.00,,---,0.00,0.00,VWS V14.01,2014-01-23 12:11:00,
2014-01-23 07:12:00,-2.1,-7.5,30.35,NNW,348,1.0,4.0,77,0.00,,---,0.00,0.00,VWS V14.01,2014-01-23 12:12:00,
2014-01-23 07:13:00,-2.1,-7.5,30.35,NNW,338,6.0,7.0,77,0.00,,---,0.00,0.00,VWS V14.01,2014-01-23 12:13:00,
2014-01-23 07:14:00,-2.2,-7.6,30.35,NNW,328,3.0,6.0,77,0.00,,---,0.00,0.00,VWS V14.01,2014-01-23 12:14:00,
2014-01-23 07:15:00,-2.2,-7.6,30.35,NNW,328,3.0,6.0,77,0.00,,---,0.00,0.00,VWS V14.01,2014-01-23 12:15:00,
2014-01-23 07:16:00,-2.2,-7.6,30.35,NNW,329,4.0,5.0,77,0.00,,---,0.00,0.00,VWS V14.01,2014-01-23 12:16:00,
2014-01-23 07:17:00,-2.2,-7.6,30.35,North,350,2.0,2.0,77,0.00,,---,0.00,0.00,VWS V14.01,2014-01-23 12:17:00,
2014-01-23 07:18:00,-2.2,-7.6,30.35,North,350,2.0,4.0,77,0.00,,---,0.00,0.00,VWS V14.01,2014-01-23 12:18:00,
2014-01-23 07:19:00,-2.2,-7.6,30.35,NNW,345,2.0,5.0,77,0.00,,---,0.00,0.00,VWS V14.01,2014-01-23 12:19:00,
2014-01-23 07:20:00,-2.2,-7.6,30.35,NNW,344,3.0,4.0,77,0.00,,---,0.00,0.00,VWS V14.01,2014-01-23 12:20:00,
2014-01-23 07:21:00,-2.3,-7.7,30.35,NNW,344,1.0,4.0,77,0.00,,---,0.00,0.00,VWS V14.01,2014-01-23 12:21:00,
2014-01-23 07:22:00,-2.3,-7.7,30.35,NNW,334,3.0,10.0,77,0.00,,---,0.00,0.00,VWS V14.01,2014-01-23 12:22:00,
2014-01-23 07:23:00,-2.3,-7.7,30.35,NNW,334,1.0,4.0,77,0.00,,---,0.00,0.00,VWS V14.01,2014-01-23 12:23:00,
2014-01-23 07:24:00,-2.3,-7.7,30.35,NNW,341,4.0,8.0,77,0.00,,---,0.00,0.00,VWS V14.01,2014-01-23 12:24:00,
2014-01-23 07:25:00,-2.3,-7.7,30.36,NNW,341,3.0,4.0,77,0.00,,---,0.00,0.00,VWS V14.01,2014-01-23 12:25:00,
2014-01-23 07:27:00,-2.4,-7.8,30.36,NNW,344,5.0,7.0,77,0.00,,---,0.00,0.00,VWS V14.01,2014-01-23 12:27:00,
2014-01-23 07:28:00,-2.4,-7.8,30.36,NNW,334,6.0,8.0,77,0.00,,---,0.00,0.00,VWS V14.01,2014-01-23 12:28:00,
2014-01-23 07:30:00,-2.4,-7.8,30.36,NNW,335,2.0,4.0,77,0.00,,---,0.00,0.00,VWS V14.01,2014-01-23 12:30:00,
2014-01-23 07:31:00,-2.4,-7.8,30.36,NNW,337,6.0,6.0,77,0.00,,---,0.00,0.00,VWS V14.01,2014-01-23 12:31:00,
2014-01-23 07:32:00,-2.4,-7.8,30.36,NNW,340,5.0,8.0,77,0.00,,---,0.00,0.00,VWS V14.01,2014-01-23 12:32:00,
2014-01-23 07:33:00,-2.4,-7.8,30.36,NNW,346,2.0,8.0,77,0.00,,---,0.00,0.00,VWS V14.01,2014-01-23 12:33:00,
2014-01-23 07:35:00,-2.4,-7.8,30.36,NNW,345,0.0,1.0,77,0.00,,---,0.00,0.00,VWS V14.01,2014-01-23 12:35:00,
2014-01-23 07:36:00,-2.5,-7.9,30.36,NNW,346,4.0,6.0,77,0.00,,---,0.00,0.00,VWS V14.01,2014-01-23 12:36:00,
2014-01-23 07:37:00,-2.5,-7.9,30.36,NNW,346,2.0,4.0,77,0.00,,---,0.00,0.00,VWS V14.01,2014-01-23 12:37:00,
2014-01-23 07:39:00,-2.5,-7.9,30.36,NNW,346,0.0,1.0,77,0.00,,---,0.00,0.00,VWS V14.01,2014-01-23 12:39:00,
2014-01-23 07:40:00,-2.5,-7.9,30.36,NNW,347,0.0,2.0,77,0.00,,---,0.00,0.00,VWS V14.01,2014-01-23 12:40:00,
2014-01-23 07:41:00,-2.5,-7.9,30.36,NNW,347,2.0,2.0,77,0.00,,---,0.00,0.00,VWS V14.01,2014-01-23 12:41:00,
2014-01-23 07:42:00,-2.6,-8.0,30.36,NNW,348,4.0,4.0,77,0.00,,---,0.00,0.00,VWS V14.01,2014-01-23 12:42:00,
2014-01-23 07:44:00,-2.6,-8.0,30.36,NNW,348,2.0,3.0,77,0.00,,---,0.00,0.00,VWS V14.01,2014-01-23 12:44:00,
2014-01-23 07:45:00,-2.6,-8.0,30.36,NNW,333,1.0,7.0,77,0.00,,---,0.00,0.00,VWS V14.01,2014-01-23 12:45:00,
2014-01-23 07:46:00,-2.6,-8.0,30.36,NNW,334,2.0,7.0,77,0.00,,---,0.00,0.00,VWS V14.01,2014-01-23 12:46:00,
2014-01-23 07:47:00,-2.6,-8.0,30.36,NNW,342,6.0,7.0,77,0.00,,---,0.00,0.00,VWS V14.01,2014-01-23 12:47:00,
2014-01-23 07:49:00,-2.6,-8.0,30.37,NNW,345,4.0,5.0,77,0.00,,---,0.00,0.00,VWS V14.01,2014-01-23 12:49:00,
2014-01-23 07:50:00,-2.6,-8.0,30.37,NNW,346,3.0,3.0,77,0.00,,---,0.00,0.00,VWS V14.01,2014-01-23 12:50:00,
2014-01-23 07:51:00,-2.6,-8.0,30.37,NNW,346,3.0,3.0,77,0.00,,---,0.00,0.00,VWS V14.01,2014-01-23 12:51:00,
2014-01-23 07:53:00,-2.6,-8.0,30.37,NNW,331,3.0,6.0,77,0.00,,---,0.00,0.00,VWS V14.01,2014-01-23 12:53:00,
2014-01-23 07:54:00,-2.6,-8.0,30.37,NNW,331,2.0,3.0,77,0.00,,---,0.00,0.00,VWS V14.01,2014-01-23 12:54:00,
2014-01-23 07:55:00,-2.6,-8.0,30.37,NNW,331,3.0,5.0,77,0.00,,---,0.00,0.00,VWS V14.01,2014-01-23 12:55:00,
2014-01-23 07:56:00,-2.7,-8.1,30.37,NNW,333,5.0,6.0,77,0.00,,---,0.00,0.00,VWS V14.01,2014-01-23 12:56:00,
2014-01-23 07:58:00,-2.7,-8.1,30.37,NNW,333,5.0,5.0,77,0.00,,---,0.00,0.00,VWS V14.01,2014-01-23 12:58:00,
2014-01-23 07:59:00,-2.7,-8.1,30.37,NNW,333,2.0,3.0,77,0.00,,---,0.00,0.00,VWS V14.01,2014-01-23 12:59:00,
2014-01-23 08:00:00,-2.7,-8.1,30.37,NNW,335,5.0,7.0,77,0.00,,---,0.00,0.00,VWS V14.01,2014-01-23 13:00:00,
2014-01-23 08:01:00,-2.7,-8.1,30.37,NNW,335,3.0,7.0,77,0.00,,---,0.00,0.00,VWS V14.01,2014-01-23 13:01:00,
2014-01-23 08:02:00,-2.7,-8.1,30.37,NNW,336,1.0,4.0,77,0.00,,---,0.00,0.00,VWS V14.01,2014-01-23 13:02:00,
2014-01-23 08:03:00,-2.7,-8.1,30.37,NNW,336,0.0,1.0,77,0.00,,---,0.00,0.00,VWS V14.01,2014-01-23 13:03:00,
2014-01-23 08:04:00,-2.7,-8.1,30.38,NNW,336,1.0,3.0,77,0.00,,---,0.00,0.00,VWS V14.01,2014-01-23 13:04:00,
2014-01-23 08:05:00,-2.8,-8.2,30.38,NNW,336,3.0,4.0,77,0.00,,---,0.00,0.00,VWS V14.01,2014-01-23 13:05:00,
2014-01-23 08:06:00,-2.7,-8.1,30.38,NNW,336,1.0,4.0,77,0.00,,---,0.00,0.00,VWS V14.01,2014-01-23 13:06:00,
2014-01-23 08:07:00,-2.8,-8.2,30.38,NNW,336,1.0,5.0,77,0.00,,---,0.00,0.00,VWS V14.01,2014-01-23 13:07:00,
2014-01-23 08:08:00,-2.8,-8.2,30.38,NNW,338,5.0,6.0,77,0.00,,---,0.00,0.00,VWS V14.01,2014-01-23 13:08:00,
2014-01-23 08:09:00,-2.8,-8.2,30.38,NNW,338,0.0,3.0,77,0.00,,---,0.00,0.00,VWS V14.01,2014-01-23 13:09:00,
2014-01-23 08:11:00,-2.8,-8.2,30.38,NNW,338,0.0,3.0,77,0.00,,---,0.00,0.00,VWS V14.01,2014-01-23 13:11:00,
2014-01-23 08:12:00,-2.8,-8.2,30.38,NNW,338,0.0,3.0,77,0.00,,---,0.00,0.00,VWS V14.01,2014-01-23 13:12:00,
2014-01-23 08:13:00,-2.8,-8.2,30.38,NNW,331,1.0,3.0,77,0.00,,---,0.00,0.00,VWS V14.01,2014-01-23 13:13:00,
2014-01-23 08:14:00,-2.9,-8.3,30.38,NNW,331,2.0,3.0,77,0.00,,---,0.00,0.00,VWS V14.01,2014-01-23 13:14:00,
2014-01-23 08:16:00,-2.9,-8.3,30.38,North,355,3.0,3.0,77,0.00,,---,0.00,0.00,VWS V14.01,2014-01-23 13:16:00,
2014-01-23 08:17:00,-2.9,-8.3,30.38,North,355,1.0,1.0,77,0.00,,---,0.00,0.00,VWS V14.01,2014-01-23 13:17:00,
2014-01-23 08:18:00,-2.9,-8.3,30.38,North,349,1.0,6.0,77,0.00,,---,0.00,0.00,VWS V14.01,2014-01-23 13:18:00,
2014-01-23 08:19:00,-2.9,-8.3,30.38,North,349,0.0,2.0,77,0.00,,---,0.00,0.00,VWS V14.01,2014-01-23 13:19:00,
2014-01-23 08:21:00,-2.9,-8.3,30.39,North,349,0.0,0.0,77,0.00,,---,0.00,0.00,VWS V14.01,2014-01-23 13:21:00,
2014-01-23 08:22:00,-2.9,-8.3,30.39,NNW,341,2.0,2.0,77,0.00,,---,0.00,0.00,VWS V14.01,2014-01-23 13:22:00,
2014-01-23 08:24:00,-2.9,-8.0,30.39,NNW,341,4.0,4.0,78,0.00,,---,0.00,0.00,VWS V14.01,2014-01-23 13:24:00,
2014-01-23 08:26:00,-2.9,-8.0,30.39,NNW,346,2.0,2.0,78,0.00,,---,0.00,0.00,VWS V14.01,2014-01-23 13:26:00,
2014-01-23 08:27:00,-2.9,-8.0,30.39,NNW,346,3.0,3.0,78,0.00,,---,0.00,0.00,VWS V14.01,2014-01-23 13:27:00,
2014-01-23 08:29:00,-2.9,-8.0,30.39,North,355,0.0,3.0,78,0.00,,---,0.00,0.00,VWS V14.01,2014-01-23 13:29:00,
2014-01-23 08:31:00,-2.9,-8.0,30.39,NNW,348,5.0,5.0,78,0.00,,---,0.00,0.00,VWS V14.01,2014-01-23 13:31:00,
2014-01-23 08:32:00,-2.8,-7.9,30.39,NNW,348,3.0,3.0,78,0.00,,---,0.00,0.00,VWS V14.01,2014-01-23 13:32:00,
2014-01-23 08:33:00,-2.8,-7.9,30.39,NNW,348,4.0,5.0,78,0.00,,---,0.00,0.00,VWS V14.01,2014-01-23 13:33:00,
2014-01-23 08:34:00,-2.8,-7.9,30.40,NNW,329,5.0,6.0,78,0.00,,---,0.00,0.00,VWS V14.01,2014-01-23 13:34:00,
2014-01-23 08:35:00,-2.7,-7.8,30.39,NNW,329,3.0,6.0,78,0.00,,---,0.00,0.00,VWS V14.01,2014-01-23 13:35:00,
2014-01-23 08:36:00,-2.7,-7.8,30.40,NNW,333,7.0,9.0,78,0.00,,---,0.00,0.00,VWS V14.01,2014-01-23 13:36:00,
2014-01-23 08:37:00,-2.7,-7.8,30.40,NNW,346,0.0,6.0,78,0.00,,---,0.00,0.00,VWS V14.01,2014-01-23 13:37:00,
2014-01-23 08:38:00,-2.6,-8.0,30.40,NNW,346,2.0,3.0,77,0.00,,---,0.00,0.00,VWS V14.01,2014-01-23 13:38:00,
2014-01-23 08:39:00,-2.6,-7.8,30.40,North,350,3.0,7.0,78,0.00,,---,0.00,0.00,VWS V14.01,2014-01-23 13:39:00,
2014-01-23 08:40:00,-2.6,-8.0,30.40,North,350,4.0,5.0,77,0.00,,---,0.00,0.00,VWS V14.01,2014-01-23 13:40:00,
2014-01-23 08:41:00,-2.5,-7.9,30.40,North,350,2.0,4.0,77,0.00,,---,0.00,0.00,VWS V14.01,2014-01-23 13:41:00,
2014-01-23 08:42:00,-2.5,-7.9,30.40,NNW,348,2.0,4.0,77,0.00,,---,0.00,0.00,VWS V14.01,2014-01-23 13:42:00,
2014-01-23 08:43:00,-2.4,-7.8,30.40,North,350,7.0,7.0,77,0.00,,---,0.00,0.00,VWS V14.01,2014-01-23 13:43:00,
2014-01-23 08:44:00,-2.4,-7.8,30.40,North,355,1.0,3.0,77,0.00,,---,0.00,0.00,VWS V14.01,2014-01-23 13:44:00,
2014-01-23 08:45:00,-2.3,-7.7,30.40,North,355,1.0,2.0,77,0.00,,---,0.00,0.00,VWS V14.01,2014-01-23 13:45:00,
2014-01-23 08:46:00,-2.3,-7.7,30.40,NNW,348,5.0,5.0,77,0.00,,---,0.00,0.00,VWS V14.01,2014-01-23 13:46:00,
2014-01-23 08:47:00,-2.2,-7.6,30.41,North,355,3.0,4.0,77,0.00,,---,0.00,0.00,VWS V14.01,2014-01-23 13:47:00,
2014-01-23 08:48:00,-2.2,-7.6,30.40,North,350,6.0,8.0,77,0.00,,---,0.00,0.00,VWS V14.01,2014-01-23 13:48:00,
2014-01-23 08:49:00,-2.2,-7.6,30.40,North,355,10.0,10.0,77,0.00,,---,0.00,0.00,VWS V14.01,2014-01-23 13:49:00,
2014-01-23 08:50:00,-2.2,-7.6,30.40,North,349,2.0,2.0,77,0.00,,---,0.00,0.00,VWS V14.01,2014-01-23 13:50:00,
2014-01-23 08:51:00,-2.1,-7.5,30.40,North,355,3.0,6.0,77,0.00,,---,0.00,0.00,VWS V14.01,2014-01-23 13:51:00,
2014-01-23 08:52:00,-2.1,-7.8,30.40,North,355,3.0,6.0,76,0.00,,---,0.00,0.00,VWS V14.01,2014-01-23 13:52:00,
2014-01-23 08:53:00,-2.0,-7.4,30.40,NW,315,6.0,6.0,77,0.00,,---,0.00,0.00,VWS V14.01,2014-01-23 13:53:00,
2014-01-23 08:54:00,-1.9,-7.6,30.40,NNW,327,3.0,9.0,76,0.00,,---,0.00,0.00,VWS V14.01,2014-01-23 13:54:00,
2014-01-23 08:55:00,-1.9,-7.6,30.40,NW,321,5.0,6.0,76,0.00,,---,0.00,0.00,VWS V14.01,2014-01-23 13:55:00,
2014-01-23 08:56:00,-1.9,-7.6,30.40,NW,320,2.0,3.0,76,0.00,,---,0.00,0.00,VWS V14.01,2014-01-23 13:56:00,
2014-01-23 08:57:00,-1.8,-7.5,30.40,NNW,331,5.0,7.0,76,0.00,,---,0.00,0.00,VWS V14.01,2014-01-23 13:57:00,
2014-01-23 08:58:00,-1.8,-7.5,30.40,NNW,348,6.0,8.0,76,0.00,,---,0.00,0.00,VWS V14.01,2014-01-23 13:58:00,
2014-01-23 08:59:00,-1.8,-7.5,30.41,North,355,4.0,11.0,76,0.00,,---,0.00,0.00,VWS V14.01,2014-01-23 13:59:00,
2014-01-23 09:00:00,-1.7,-7.4,30.41,NNW,338,3.0,4.0,76,0.00,,---,0.00,0.00,VWS V14.01,2014-01-23 14:00:00,
2014-01-23 09:01:00,-1.7,-7.4,30.41,North,5,3.0,12.0,76,0.00,,---,0.00,0.00,VWS V14.01,2014-01-23 14:01:00,
2014-01-23 09:02:00,-1.7,-7.4,30.41,NNW,342,5.0,5.0,76,0.00,,---,0.00,0.00,VWS V14.01,2014-01-23 14:02:00,
2014-01-23 09:03:00,-1.6,-7.3,30.41,NNW,345,2.0,3.0,76,0.00,,---,0.00,0.00,VWS V14.01,2014-01-23 14:03:00,
2014-01-23 09:04:00,-1.6,-7.3,30.41,NNW,344,4.0,4.0,76,0.00,,---,0.00,0.00,VWS V14.01,2014-01-23 14:04:00,
2014-01-23 09:05:00,-1.6,-7.3,30.41,NNW,348,6.0,6.0,76,0.00,,---,0.00,0.00,VWS V14.01,2014-01-23 14:05:00,
2014-01-23 09:06:00,-1.5,-7.2,30.41,NNW,331,4.0,6.0,76,0.00,,---,0.00,0.00,VWS V14.01,2014-01-23 14:06:00,
2014-01-23 09:07:00,-1.5,-7.2,30.41,NNW,338,4.0,5.0,76,0.00,,---,0.00,0.00,VWS V14.01,2014-01-23 14:07:00,
2014-01-23 09:08:00,-1.4,-7.1,30.41,NNW,328,3.0,4.0,76,0.00,,---,0.00,0.00,VWS V14.01,2014-01-23 14:08:00,
2014-01-23 09:09:00,-1.4,-7.1,30.41,NNW,330,4.0,6.0,76,0.00,,---,0.00,0.00,VWS V14.01,2014-01-23 14:09:00,
2014-01-23 09:10:00,-1.4,-7.1,30.41,North,360,12.0,12.0,76,0.00,,---,0.00,0.00,VWS V14.01,2014-01-23 14:10:00,
2014-01-23 09:11:00,-1.4,-7.1,30.41,North,355,7.0,8.0,76,0.00,,---,0.00,0.00,VWS V14.01,2014-01-23 14:11:00,
2014-01-23 09:12:00,-1.3,-7.3,30.41,NNW,348,8.0,9.0,75,0.00,,---,0.00,0.00,VWS V14.01,2014-01-23 14:12:00,
2014-01-23 09:13:00,-1.3,-7.3,30.41,North,355,4.0,5.0,75,0.00,,---,0.00,0.00,VWS V14.01,2014-01-23 14:13:00,
2014-01-23 09:14:00,-1.3,-7.3,30.41,WNW,302,4.0,5.0,75,0.00,,---,0.00,0.00,VWS V14.01,2014-01-23 14:14:00,
2014-01-23 09:15:00,-1.3,-7.3,30.41,WNW,302,5.0,5.0,75,0.00,,---,0.00,0.00,VWS V14.01,2014-01-23 14:15:00,
2014-01-23 09:16:00,-1.3,-7.3,30.41,North,349,6.0,12.0,75,0.00,,---,0.00,0.00,VWS V14.01,2014-01-23 14:16:00,
2014-01-23 09:18:00,-1.2,-7.2,30.42,NNW,348,2.0,2.0,75,0.00,,---,0.00,0.00,VWS V14.01,2014-01-23 14:18:00,
2014-01-23 09:19:00,-1.2,-7.2,30.42,North,355,4.0,9.0,75,0.00,,---,0.00,0.00,VWS V14.01,2014-01-23 14:19:00,
2014-01-23 09:20:00,-1.2,-7.2,30.42,North,355,7.0,9.0,75,0.00,,---,0.00,0.00,VWS V14.01,2014-01-23 14:20:00,
2014-01-23 09:21:00,-1.1,-7.1,30.42,North,355,4.0,4.0,75,0.00,,---,0.00,0.00,VWS V14.01,2014-01-23 14:21:00,
2014-01-23 09:23:00,-1.0,-7.0,30.42,NNW,338,3.0,5.0,75,0.00,,---,0.00,0.00,VWS V14.01,2014-01-23 14:23:00,
2014-01-23 09:25:00,-1.0,-7.0,30.42,NNW,344,4.0,12.0,75,0.00,,---,0.00,0.00,VWS V14.01,2014-01-23 14:25:00,
2014-01-23 09:26:00,-1.0,-7.0,30.42,North,5,10.0,10.0,75,0.00,,---,0.00,0.00,VWS V14.01,2014-01-23 14:26:00,
2014-01-23 09:28:00,-1.0,-7.3,30.43,NNW,339,6.0,9.0,74,0.00,,---,0.00,0.00,VWS V14.01,2014-01-23 14:28:00,
2014-01-23 09:30:00,-1.0,-7.3,30.42,NNW,343,4.0,11.0,74,0.00,,---,0.00,0.00,VWS V14.01,2014-01-23 14:30:00,
2014-01-23 09:31:00,-0.9,-7.2,30.42,NNW,336,6.0,11.0,74,0.00,,---,0.00,0.00,VWS V14.01,2014-01-23 14:31:00,
2014-01-23 09:33:00,-0.9,-7.2,30.43,North,5,6.0,11.0,74,0.00,,---,0.00,0.00,VWS V14.01,2014-01-23 14:33:00,
2014-01-23 09:34:00,-0.9,-7.2,30.43,North,355,5.0,13.0,74,0.00,,---,0.00,0.00,VWS V14.01,2014-01-23 14:34:00,
2014-01-23 09:35:00,-0.9,-7.2,30.43,NNW,329,6.0,10.0,74,0.00,,---,0.00,0.00,VWS V14.01,2014-01-23 14:35:00,
2014-01-23 09:36:00,-0.9,-7.2,30.43,North,355,7.0,11.0,74,0.00,,---,0.00,0.00,VWS V14.01,2014-01-23 14:36:00,
2014-01-23 09:38:00,-0.8,-7.1,30.43,NNW,341,5.0,10.0,74,0.00,,---,0.00,0.00,VWS V14.01,2014-01-23 14:38:00,
2014-01-23 09:39:00,-0.8,-7.1,30.43,NNW,342,6.0,10.0,74,0.00,,---,0.00,0.00,VWS V14.01,2014-01-23 14:39:00,
2014-01-23 09:40:00,-0.8,-7.1,30.43,NNW,333,5.0,9.0,74,0.00,,---,0.00,0.00,VWS V14.01,2014-01-23 14:40:00,
2014-01-23 09:41:00,-0.8,-7.1,30.43,NNW,341,3.0,8.0,74,0.00,,---,0.00,0.00,VWS V14.01,2014-01-23 14:41:00,
2014-01-23 09:44:00,-0.7,-7.0,30.43,NNW,338,5.0,8.0,74,0.00,,---,0.00,0.00,VWS V14.01,2014-01-23 14:44:00,
2014-01-23 09:45:00,-0.7,-7.0,30.43,North,355,7.0,8.0,74,0.00,,---,0.00,0.00,VWS V14.01,2014-01-23 14:45:00,
2014-01-23 09:49:00,-0.6,-6.9,30.44,NNW,340,8.0,9.0,74,0.00,,---,0.00,0.00,VWS V14.01,2014-01-23 14:49:00,
2014-01-23 09:50:00,-0.5,-6.8,30.44,NNW,342,9.0,9.0,74,0.00,,---,0.00,0.00,VWS V14.01,2014-01-23 14:50:00,
2014-01-23 09:54:00,-0.4,-6.7,30.44,NNW,338,4.0,4.0,74,0.00,,---,0.00,0.00,VWS V14.01,2014-01-23 14:54:00,
2014-01-23 09:55:00,-0.4,-6.7,30.44,NW,312,7.0,8.0,74,0.00,,---,0.00,0.00,VWS V14.01,2014-01-23 14:55:00,
2014-01-23 09:59:00,-0.4,-6.7,30.44,NNW,345,7.0,11.0,74,0.00,,---,0.00,0.00,VWS V14.01,2014-01-23 14:59:00,
2014-01-23 10:00:00,-0.5,-6.8,30.44,North,355,10.0,10.0,74,0.00,,---,0.00,0.00,VWS V14.01,2014-01-23 15:00:00,
2014-01-23 10:01:00,-0.4,-6.7,30.44,North,355,5.0,12.0,74,0.00,,---,0.00,0.00,VWS V14.01,2014-01-23 15:01:00,
2014-01-23 10:04:00,-0.4,-6.7,30.45,NNW,340,3.0,7.0,74,0.00,,---,0.00,0.00,VWS V14.01,2014-01-23 15:04:00,
2014-01-23 10:05:00,-0.4,-6.7,30.45,North,360,5.0,6.0,74,0.00,,---,0.00,0.00,VWS V14.01,2014-01-23 15:05:00,
2014-01-23 10:06:00,-0.3,-6.6,30.45,NNW,334,3.0,15.0,74,0.00,,---,0.00,0.00,VWS V14.01,2014-01-23 15:06:00,
2014-01-23 10:09:00,-0.3,-6.6,30.45,NNW,344,9.0,13.0,74,0.00,,---,0.00,0.00,VWS V14.01,2014-01-23 15:09:00,
2014-01-23 10:10:00,-0.2,-6.8,30.45,NNW,346,7.0,7.0,73,0.00,,---,0.00,0.00,VWS V14.01,2014-01-23 15:10:00,
2014-01-23 10:11:00,-0.1,-6.4,30.45,North,350,5.0,11.0,74,0.00,,---,0.00,0.00,VWS V14.01,2014-01-23 15:11:00,
2014-01-23 10:14:00,-0.1,-6.4,30.45,NW,326,7.0,7.0,74,0.00,,---,0.00,0.00,VWS V14.01,2014-01-23 15:14:00,
2014-01-23 10:15:00,-0.1,-6.6,30.45,NNW,333,7.0,9.0,73,0.00,,---,0.00,0.00,VWS V14.01,2014-01-23 15:15:00,
2014-01-23 10:16:00,-0.1,-6.6,30.45,NNW,335,8.0,11.0,73,0.00,,---,0.00,0.00,VWS V14.01,2014-01-23 15:16:00,
2014-01-23 10:19:00,0.1,-6.5,30.45,NNW,338,3.0,12.0,73,0.00,,---,0.00,0.00,VWS V14.01,2014-01-23 15:19:00,
2014-01-23 10:20:00,0.1,-6.5,30.45,NNW,336,4.0,4.0,73,0.00,,---,0.00,0.00,VWS V14.01,2014-01-23 15:20:00,
2014-01-23 10:21:00,0.2,-6.1,30.45,NNW,345,8.0,8.0,74,0.00,,---,0.00,0.00,VWS V14.01,2014-01-23 15:21:00,
2014-01-23 10:24:00,0.2,-6.4,30.45,NNW,342,6.0,10.0,73,0.00,,---,0.00,0.00,VWS V14.01,2014-01-23 15:24:00,
2014-01-23 10:25:00,0.2,-6.4,30.46,NNW,348,8.0,10.0,73,0.00,,---,0.00,0.00,VWS V14.01,2014-01-23 15:25:00,
2014-01-23 10:26:00,0.2,-6.4,30.46,NNW,336,4.0,8.0,73,0.00,,---,0.00,0.00,VWS V14.01,2014-01-23 15:26:00,
2014-01-23 10:29:00,0.4,-6.2,30.46,NW,320,13.0,13.0,73,0.00,,---,0.00,0.00,VWS V14.01,2014-01-23 15:29:00,
2014-01-23 10:30:00,0.4,-6.2,30.46,NNW,346,9.0,13.0,73,0.00,,---,0.00,0.00,VWS V14.01,2014-01-23 15:30:00,
2014-01-23 10:31:00,0.3,-6.3,30.46,NNW,340,4.0,8.0,73,0.00,,---,0.00,0.00,VWS V14.01,2014-01-23 15:31:00,
2014-01-23 10:34:00,0.4,-6.2,30.46,North,355,7.0,14.0,73,0.00,,---,0.00,0.00,VWS V14.01,2014-01-23 15:34:00,
2014-01-23 10:35:00,0.4,-6.2,30.46,North,350,7.0,9.0,73,0.00,,---,0.00,0.00,VWS V14.01,2014-01-23 15:35:00,
2014-01-23 10:36:00,0.4,-6.2,30.46,NNW,345,3.0,5.0,73,0.00,,---,0.00,0.00,VWS V14.01,2014-01-23 15:36:00,
2014-01-23 10:39:00,0.9,-5.7,30.46,North,355,5.0,9.0,73,0.00,,---,0.00,0.00,VWS V14.01,2014-01-23 15:39:00,
2014-01-23 10:40:00,0.9,-5.7,30.46,North,349,5.0,5.0,73,0.00,,---,0.00,0.00,VWS V14.01,2014-01-23 15:40:00,
2014-01-23 10:41:00,1.0,-5.6,30.46,North,350,2.0,4.0,73,0.00,,---,0.00,0.00,VWS V14.01,2014-01-23 15:41:00,
2014-01-23 10:44:00,1.4,-5.2,30.47,NW,325,6.0,10.0,73,0.00,,---,0.00,0.00,VWS V14.01,2014-01-23 15:44:00,
2014-01-23 10:45:00,1.4,-5.2,30.46,NW,325,5.0,6.0,73,0.00,,---,0.00,0.00,VWS V14.01,2014-01-23 15:45:00,
2014-01-23 10:46:00,1.4,-5.5,30.46,NNW,336,7.0,8.0,72,0.00,,---,0.00,0.00,VWS V14.01,2014-01-23 15:46:00,
2014-01-23 10:49:00,1.2,-5.7,30.47,North,360,10.0,10.0,72,0.00,,---,0.00,0.00,VWS V14.01,2014-01-23 15:49:00,
2014-01-23 10:50:00,1.2,-5.7,30.47,North,355,3.0,12.0,72,0.00,,---,0.00,0.00,VWS V14.01,2014-01-23 15:50:00,
2014-01-23 10:51:00,1.2,-5.7,30.47,North,355,4.0,12.0,72,0.00,,---,0.00,0.00,VWS V14.01,2014-01-23 15:51:00,
2014-01-23 10:55:00,1.3,-5.6,30.47,North,355,5.0,10.0,72,0.00,,---,0.00,0.00,VWS V14.01,2014-01-23 15:55:00,
2014-01-23 10:56:00,1.3,-5.6,30.47,North,350,6.0,6.0,72,0.00,,---,0.00,0.00,VWS V14.01,2014-01-23 15:56:00,
2014-01-23 11:00:00,1.6,-5.3,30.48,NNW,340,10.0,11.0,72,0.00,,---,0.00,0.00,VWS V14.01,2014-01-23 16:00:00,
2014-01-23 11:01:00,1.6,-5.3,30.48,NNW,347,2.0,3.0,72,0.00,,---,0.00,0.00,VWS V14.01,2014-01-23 16:01:00,
2014-01-23 11:05:00,1.9,-4.7,30.48,North,11,6.0,6.0,73,0.00,,---,0.00,0.00,VWS V14.01,2014-01-23 16:05:00,
2014-01-23 11:06:00,1.9,-4.7,30.48,North,360,8.0,9.0,73,0.00,,---,0.00,0.00,VWS V14.01,2014-01-23 16:06:00,
2014-01-23 11:07:00,1.8,-5.1,30.48,NNW,340,9.0,9.0,72,0.00,,---,0.00,0.00,VWS V14.01,2014-01-23 16:07:00,
2014-01-23 11:10:00,1.8,-5.1,30.48,NW,309,2.0,5.0,72,0.00,,---,0.00,0.00,VWS V14.01,2014-01-23 16:10:00,
2014-01-23 11:11:00,1.8,-4.8,30.48,NW,311,5.0,6.0,73,0.00,,---,0.00,0.00,VWS V14.01,2014-01-23 16:11:00,
2014-01-23 11:12:00,1.8,-4.8,30.48,NW,313,4.0,6.0,73,0.00,,---,0.00,0.00,VWS V14.01,2014-01-23 16:12:00,
2014-01-23 11:15:00,1.9,-5.0,30.49,North,360,4.0,6.0,72,0.00,,---,0.00,0.00,VWS V14.01,2014-01-23 16:15:00,
2014-01-23 11:16:00,1.9,-5.0,30.49,North,355,4.0,5.0,72,0.00,,---,0.00,0.00,VWS V14.01,2014-01-23 16:16:00,
2014-01-23 11:17:00,1.9,-5.0,30.49,NNW,339,3.0,5.0,72,0.00,,---,0.00,0.00,VWS V14.01,2014-01-23 16:17:00,
2014-01-23 11:20:00,1.8,-5.1,30.49,NNW,344,8.0,14.0,72,0.00,,---,0.00,0.00,VWS V14.01,2014-01-23 16:20:00,
2014-01-23 11:21:00,1.8,-5.1,30.49,NNW,329,6.0,6.0,72,0.00,,---,0.00,0.00,VWS V14.01,2014-01-23 16:21:00,
2014-01-23 11:22:00,1.7,-5.2,30.49,NNW,333,5.0,14.0,72,0.00,,---,0.00,0.00,VWS V14.01,2014-01-23 16:22:00,
2014-01-23 11:25:00,1.7,-5.2,30.49,NNW,334,4.0,7.0,72,0.00,,---,0.00,0.00,VWS V14.01,2014-01-23 16:25:00,
2014-01-23 11:26:00,1.8,-4.8,30.49,NNW,330,5.0,6.0,73,0.00,,---,0.00,0.00,VWS V14.01,2014-01-23 16:26:00,
2014-01-23 11:27:00,1.8,-4.8,30.49,NW,313,5.0,8.0,73,0.00,,---,0.00,0.00,VWS V14.01,2014-01-23 16:27:00,
2014-01-23 11:30:00,1.7,-5.2,30.49,North,355,4.0,6.0,72,0.00,,---,0.00,0.00,VWS V14.01,2014-01-23 16:30:00,
2014-01-23 11:31:00,1.7,-5.2,30.49,North,355,4.0,6.0,72,0.00,,---,0.00,0.00,VWS V14.01,2014-01-23 16:31:00,
2014-01-23 11:32:00,1.9,-4.7,30.49,North,355,5.0,5.0,73,0.00,,---,0.00,0.00,VWS V14.01,2014-01-23 16:32:00,
2014-01-23 11:35:00,2.0,-4.9,30.49,NNW,346,12.0,12.0,72,0.00,,---,0.00,0.00,VWS V14.01,2014-01-23 16:35:00,
2014-01-23 11:36:00,2.0,-4.9,30.49,NNW,342,5.0,12.0,72,0.00,,---,0.00,0.00,VWS V14.01,2014-01-23 16:36:00,
2014-01-23 11:37:00,2.1,-4.8,30.49,NNW,347,5.0,10.0,72,0.00,,---,0.00,0.00,VWS V14.01,2014-01-23 16:37:00,
2014-01-23 11:40:00,2.0,-4.9,30.49,North,355,13.0,13.0,72,0.00,,---,0.00,0.00,VWS V14.01,2014-01-23 16:40:00,
2014-01-23 11:41:00,2.0,-4.9,30.49,NNW,348,3.0,7.0,72,0.00,,---,0.00,0.00,VWS V14.01,2014-01-23 16:41:00,
2014-01-23 11:42:00,2.0,-4.9,30.49,NNW,330,6.0,9.0,72,0.00,,---,0.00,0.00,VWS V14.01,2014-01-23 16:42:00,
2014-01-23 11:46:00,2.2,-4.7,30.50,NW,324,4.0,16.0,72,0.00,,---,0.00,0.00,VWS V14.01,2014-01-23 16:46:00,
2014-01-23 11:47:00,2.3,-4.4,30.50,NNW,338,9.0,15.0,73,0.00,,---,0.00,0.00,VWS V14.01,2014-01-23 16:47:00,
2014-01-23 11:51:00,2.4,-4.3,30.50,North,355,10.0,10.0,73,0.00,,---,0.00,0.00,VWS V14.01,2014-01-23 16:51:00,
2014-01-23 11:52:00,2.4,-4.6,30.50,NNE,12,7.0,11.0,72,0.00,,---,0.00,0.00,VWS V14.01,2014-01-23 16:52:00,
2014-01-23 11:53:00,2.4,-4.6,30.50,NNE,12,7.0,11.0,72,0.00,,---,0.00,0.00,VWS V14.01,2014-01-23 16:53:00,
2014-01-23 11:56:00,2.6,-4.1,30.50,NE,49,10.0,10.0,73,0.00,,---,0.00,0.00,VWS V14.01,2014-01-23 16:56:00,
2014-01-23 11:57:00,2.6,-4.1,30.50,North,355,6.0,8.0,73,0.00,,---,0.00,0.00,VWS V14.01,2014-01-23 16:57:00,
2014-01-23 11:58:00,2.6,-4.1,30.50,North,5,8.0,8.0,73,0.00,,---,0.00,0.00,VWS V14.01,2014-01-23 16:58:00,
2014-01-23 12:01:00,2.6,-4.3,30.50,NW,323,4.0,11.0,72,0.00,,---,0.00,0.00,VWS V14.01,2014-01-23 17:01:00,
2014-01-23 12:02:00,2.6,-4.3,30.50,NNW,344,6.0,10.0,72,0.00,,---,0.00,0.00,VWS V14.01,2014-01-23 17:02:00,
2014-01-23 12:03:00,2.7,-4.3,30.50,North,355,6.0,7.0,72,0.00,,---,0.00,0.00,VWS V14.01,2014-01-23 17:03:00,
2014-01-23 12:06:00,2.9,-3.8,30.50,North,349,5.0,5.0,73,0.00,,---,0.00,0.00,VWS V14.01,2014-01-23 17:06:00,
2014-01-23 12:07:00,3.0,-4.0,30.50,North,355,4.0,11.0,72,0.00,,---,0.00,0.00,VWS V14.01,2014-01-23 17:07:00,
2014-01-23 12:08:00,3.0,-4.0,30.50,NNW,340,6.0,6.0,72,0.00,,---,0.00,0.00,VWS V14.01,2014-01-23 17:08:00,
2014-01-23 12:11:00,3.2,-3.8,30.50,NNW,342,3.0,6.0,72,0.00,,---,0.00,0.00,VWS V14.01,2014-01-23 17:11:00,
2014-01-23 12:13:00,3.2,-3.8,30.50,NNW,348,3.0,8.0,72,0.00,,---,0.00,0.00,VWS V14.01,2014-01-23 17:13:00,
2014-01-23 12:14:00,3.1,-4.2,30.50,NNW,345,7.0,8.0,71,0.00,,---,0.00,0.00,VWS V14.01,2014-01-23 17:14:00,
2014-01-23 12:16:00,3.2,-3.8,30.50,WNW,294,7.0,10.0,72,0.00,,---,0.00,0.00,VWS V14.01,2014-01-23 17:16:00,
2014-01-23 12:18:00,3.2,-3.8,30.50,NNW,340,4.0,13.0,72,0.00,,---,0.00,0.00,VWS V14.01,2014-01-23 17:18:00,
2014-01-23 12:19:00,3.2,-3.8,30.50,West,265,9.0,13.0,72,0.00,,---,0.00,0.00,VWS V14.01,2014-01-23 17:19:00,
2014-01-23 12:21:00,3.2,-3.8,30.50,NNW,343,6.0,8.0,72,0.00,,---,0.00,0.00,VWS V14.01,2014-01-23 17:21:00,
2014-01-23 12:23:00,3.1,-3.9,30.51,NW,311,5.0,9.0,72,0.00,,---,0.00,0.00,VWS V14.01,2014-01-23 17:23:00,
2014-01-23 12:24:00,3.1,-3.9,30.51,NW,311,5.0,9.0,72,0.00,,---,0.00,0.00,VWS V14.01,2014-01-23 17:24:00,
2014-01-23 12:26:00,3.1,-3.9,30.50,NNW,328,3.0,5.0,72,0.00,,---,0.00,0.00,VWS V14.01,2014-01-23 17:26:00,
2014-01-23 12:27:00,3.1,-3.9,30.50,NNW,336,11.0,11.0,72,0.00,,---,0.00,0.00,VWS V14.01,2014-01-23 17:27:00,
2014-01-23 12:28:00,3.1,-3.9,30.50,NW,306,5.0,9.0,72,0.00,,---,0.00,0.00,VWS V14.01,2014-01-23 17:28:00,
2014-01-23 12:29:00,3.1,-3.9,30.50,NW,306,4.0,9.0,72,0.00,,---,0.00,0.00,VWS V14.01,2014-01-23 17:29:00,
2014-01-23 12:31:00,3.2,-3.8,30.50,NNW,332,6.0,9.0,72,0.00,,---,0.00,0.00,VWS V14.01,2014-01-23 17:31:00,
2014-01-23 12:32:00,3.2,-3.8,30.50,NW,320,5.0,5.0,72,0.00,,---,0.00,0.00,VWS V14.01,2014-01-23 17:32:00,
2014-01-23 12:34:00,3.1,-3.9,30.50,NNW,342,4.0,6.0,72,0.00,,---,0.00,0.00,VWS V14.01,2014-01-23 17:34:00,
2014-01-23 12:36:00,3.4,-3.3,30.50,NNW,336,2.0,4.0,73,0.00,,---,0.00,0.00,VWS V14.01,2014-01-23 17:36:00,
2014-01-23 12:37:00,3.5,-3.2,30.50,NW,313,3.0,5.0,73,0.00,,---,0.00,0.00,VWS V14.01,2014-01-23 17:37:00,
2014-01-23 12:39:00,3.7,-3.0,30.51,NW,317,5.0,7.0,73,0.00,,---,0.00,0.00,VWS V14.01,2014-01-23 17:39:00,
2014-01-23 12:41:00,3.6,-3.4,30.51,NNW,329,4.0,6.0,72,0.00,,---,0.00,0.00,VWS V14.01,2014-01-23 17:41:00,
2014-01-23 12:42:00,3.5,-3.5,30.51,NW,322,2.0,7.0,72,0.00,,---,0.00,0.00,VWS V14.01,2014-01-23 17:42:00,
2014-01-23 12:44:00,3.3,-3.7,30.51,NNW,344,2.0,3.0,72,0.00,,---,0.00,0.00,VWS V14.01,2014-01-23 17:44:00,
2014-01-23 12:46:00,3.3,-3.7,30.51,NNW,332,2.0,7.0,72,0.00,,---,0.00,0.00,VWS V14.01,2014-01-23 17:46:00,
2014-01-23 12:47:00,3.3,-3.7,30.51,NNW,336,4.0,8.0,72,0.00,,---,0.00,0.00,VWS V14.01,2014-01-23 17:47:00,
2014-01-23 12:49:00,3.5,-3.2,30.51,NNW,339,4.0,6.0,73,0.00,,---,0.00,0.00,VWS V14.01,2014-01-23 17:49:00,
2014-01-23 12:51:00,3.7,-3.0,30.51,WNW,303,7.0,7.0,73,0.00,,---,0.00,0.00,VWS V14.01,2014-01-23 17:51:00,
2014-01-23 12:52:00,3.7,-3.0,30.51,WNW,301,7.0,9.0,73,0.00,,---,0.00,0.00,VWS V14.01,2014-01-23 17:52:00,
2014-01-23 12:54:00,3.6,-3.1,30.51,NNW,340,8.0,8.0,73,0.00,,---,0.00,0.00,VWS V14.01,2014-01-23 17:54:00,
2014-01-23 12:56:00,3.5,-3.2,30.51,NW,307,4.0,10.0,73,0.00,,---,0.00,0.00,VWS V14.01,2014-01-23 17:56:00,
2014-01-23 12:57:00,3.5,-3.2,30.51,WNW,291,4.0,7.0,73,0.00,,---,0.00,0.00,VWS V14.01,2014-01-23 17:57:00,
2014-01-23 12:59:00,3.5,-3.2,30.51,NW,322,3.0,4.0,73,0.00,,---,0.00,0.00,VWS V14.01,2014-01-23 17:59:00,
2014-01-23 13:00:00,3.5,-3.5,30.51,WNW,291,7.0,7.0,72,0.00,,---,0.00,0.00,VWS V14.01,2014-01-23 18:00:00,
2014-01-23 13:02:00,3.6,-3.1,30.51,NNW,346,3.0,10.0,73,0.00,,---,0.00,0.00,VWS V14.01,2014-01-23 18:02:00,
2014-01-23 13:04:00,3.7,-3.0,30.51,NW,316,6.0,6.0,73,0.00,,---,0.00,0.00,VWS V14.01,2014-01-23 18:04:00,
2014-01-23 13:05:00,3.7,-3.0,30.52,NW,321,4.0,7.0,73,0.00,,---,0.00,0.00,VWS V14.01,2014-01-23 18:05:00,
2014-01-23 13:07:00,3.6,-3.4,30.51,NW,314,7.0,9.0,72,0.00,,---,0.00,0.00,VWS V14.01,2014-01-23 18:07:00,
2014-01-23 13:09:00,3.6,-3.1,30.51,WNW,293,5.0,8.0,73,0.00,,---,0.00,0.00,VWS V14.01,2014-01-23 18:09:00,
2014-01-23 13:10:00,3.6,-3.1,30.51,WNW,284,7.0,11.0,73,0.00,,---,0.00,0.00,VWS V14.01,2014-01-23 18:10:00,
2014-01-23 13:12:00,3.6,-3.1,30.52,NNW,333,5.0,5.0,73,0.00,,---,0.00,0.00,VWS V14.01,2014-01-23 18:12:00,
2014-01-23 13:14:00,3.7,-3.0,30.52,NNW,347,8.0,11.0,73,0.00,,---,0.00,0.00,VWS V14.01,2014-01-23 18:14:00,
2014-01-23 13:15:00,3.7,-3.0,30.52,North,355,11.0,13.0,73,0.00,,---,0.00,0.00,VWS V14.01,2014-01-23 18:15:00,
2014-01-23 13:17:00,3.6,-3.1,30.52,WNW,300,3.0,9.0,73,0.00,,---,0.00,0.00,VWS V14.01,2014-01-23 18:17:00,
2014-01-23 13:18:00,3.6,-3.1,30.52,WNW,296,5.0,6.0,73,0.00,,---,0.00,0.00,VWS V14.01,2014-01-23 18:18:00,
2014-01-23 13:19:00,3.7,-3.0,30.52,North,360,11.0,14.0,73,0.00,,---,0.00,0.00,VWS V14.01,2014-01-23 18:19:00,
2014-01-23 13:20:00,3.7,-3.0,30.52,NNW,335,6.0,6.0,73,0.00,,---,0.00,0.00,VWS V14.01,2014-01-23 18:20:00,
2014-01-23 13:22:00,3.7,-3.0,30.52,NNW,338,13.0,16.0,73,0.00,,---,0.00,0.00,VWS V14.01,2014-01-23 18:22:00,
2014-01-23 13:23:00,3.6,-3.1,30.52,NNW,331,5.0,7.0,73,0.00,,---,0.00,0.00,VWS V14.01,2014-01-23 18:23:00,
2014-01-23 13:24:00,3.7,-3.0,30.52,NNW,344,5.0,11.0,73,0.00,,---,0.00,0.00,VWS V14.01,2014-01-23 18:24:00,
2014-01-23 13:25:00,3.7,-3.0,30.52,NNW,344,5.0,6.0,73,0.00,,---,0.00,0.00,VWS V14.01,2014-01-23 18:25:00,
2014-01-23 13:27:00,3.8,-2.9,30.52,NW,310,6.0,7.0,73,0.00,,---,0.00,0.00,VWS V14.01,2014-01-23 18:27:00,
2014-01-23 13:28:00,3.8,-2.9,30.52,NNW,340,6.0,10.0,73,0.00,,---,0.00,0.00,VWS V14.01,2014-01-23 18:28:00,
2014-01-23 13:29:00,3.9,-2.8,30.52,NNW,339,7.0,9.0,73,0.00,,---,0.00,0.00,VWS V14.01,2014-01-23 18:29:00,
2014-01-23 13:30:00,3.9,-2.8,30.52,North,355,8.0,8.0,73,0.00,,---,0.00,0.00,VWS V14.01,2014-01-23 18:30:00,
2014-01-23 13:32:00,3.9,-3.1,30.52,NNW,327,5.0,9.0,72,0.00,,---,0.00,0.00,VWS V14.01,2014-01-23 18:32:00,
2014-01-23 13:33:00,3.9,-3.1,30.52,NW,324,5.0,7.0,72,0.00,,---,0.00,0.00,VWS V14.01,2014-01-23 18:33:00,
2014-01-23 13:35:00,4.0,-2.7,30.52,NW,313,5.0,5.0,73,0.00,,---,0.00,0.00,VWS V14.01,2014-01-23 18:35:00,
2014-01-23 13:36:00,4.0,-2.7,30.52,NNW,335,4.0,6.0,73,0.00,,---,0.00,0.00,VWS V14.01,2014-01-23 18:36:00,
2014-01-23 13:37:00,4.1,-2.6,30.52,North,360,6.0,9.0,73,0.00,,---,0.00,0.00,VWS V14.01,2014-01-23 18:37:00,
2014-01-23 13:38:00,4.2,-2.2,30.52,NNW,331,5.0,10.0,74,0.00,,---,0.00,0.00,VWS V14.01,2014-01-23 18:38:00,
2014-01-23 13:40:00,4.1,-2.6,30.52,WNW,288,11.0,11.0,73,0.00,,---,0.00,0.00,VWS V14.01,2014-01-23 18:40:00,
2014-01-23 13:41:00,3.9,-2.8,30.52,WNW,298,6.0,12.0,73,0.00,,---,0.00,0.00,VWS V14.01,2014-01-23 18:41:00,
2014-01-23 13:42:00,3.7,-3.0,30.52,WNW,288,5.0,7.0,73,0.00,,---,0.00,0.00,VWS V14.01,2014-01-23 18:42:00,
2014-01-23 13:44:00,3.7,-3.0,30.52,North,360,9.0,12.0,73,0.00,,---,0.00,0.00,VWS V14.01,2014-01-23 18:44:00,
2014-01-23 13:45:00,3.8,-2.6,30.52,WNW,294,3.0,4.0,74,0.00,,---,0.00,0.00,VWS V14.01,2014-01-23 18:45:00,
2014-01-23 13:46:00,3.9,-2.2,30.52,NW,324,6.0,6.0,75,0.00,,---,0.00,0.00,VWS V14.01,2014-01-23 18:46:00,
2014-01-23 13:47:00,4.0,-2.2,30.52,WNW,300,4.0,6.0,75,0.00,,---,0.00,0.00,VWS V14.01,2014-01-23 18:47:00,
2014-01-23 13:50:00,4.2,-2.0,30.52,WNW,300,7.0,7.0,75,0.00,,---,0.00,0.00,VWS V14.01,2014-01-23 18:50:00,
2014-01-23 13:51:00,4.2,-2.0,30.52,NW,305,4.0,8.0,75,0.00,,---,0.00,0.00,VWS V14.01,2014-01-23 18:51:00,
2014-01-23 13:52:00,4.2,-2.0,30.52,NNW,336,6.0,10.0,75,0.00,,---,0.00,0.00,VWS V14.01,2014-01-23 18:52:00,
2014-01-23 13:55:00,4.3,-1.9,30.52,NW,305,5.0,5.0,75,0.00,,---,0.00,0.00,VWS V14.01,2014-01-23 18:55:00,
2014-01-23 13:57:00,4.2,-2.0,30.52,NNW,330,5.0,9.0,75,0.00,,---,0.00,0.00,VWS V14.01,2014-01-23 18:57:00,
2014-01-23 14:00:00,4.3,-1.3,30.51,WNW,303,5.0,6.0,77,0.00,,---,0.00,0.00,VWS V14.01,2014-01-23 19:00:00,
2014-01-23 14:01:00,4.3,-1.3,30.51,NNW,328,8.0,10.0,77,0.00,,---,0.00,0.00,VWS V14.01,2014-01-23 19:01:00,
2014-01-23 14:02:00,4.3,-1.6,30.51,NW,323,6.0,6.0,76,0.00,,---,0.00,0.00,VWS V14.01,2014-01-23 19:02:00,
2014-01-23 14:03:00,4.3,-1.6,30.51,NNW,333,4.0,10.0,76,0.00,,---,0.00,0.00,VWS V14.01,2014-01-23 19:03:00,
2014-01-23 14:05:00,4.2,-1.7,30.52,NW,308,4.0,6.0,76,0.00,,---,0.00,0.00,VWS V14.01,2014-01-23 19:05:00,
2014-01-23 14:06:00,4.2,-1.7,30.52,NNW,334,7.0,10.0,76,0.00,,---,0.00,0.00,VWS V14.01,2014-01-23 19:06:00,
2014-01-23 14:07:00,4.3,-1.6,30.52,NW,319,3.0,4.0,76,0.00,,---,0.00,0.00,VWS V14.01,2014-01-23 19:07:00,
2014-01-23 14:08:00,4.4,-1.5,30.52,NNW,331,3.0,7.0,76,0.00,,---,0.00,0.00,VWS V14.01,2014-01-23 19:08:00,
2014-01-23 14:10:00,4.6,-1.3,30.52,NNW,338,9.0,9.0,76,0.00,,---,0.00,0.00,VWS V14.01,2014-01-23 19:10:00,
2014-01-23 14:11:00,4.6,-1.6,30.52,NW,324,6.0,6.0,75,0.00,,---,0.00,0.00,VWS V14.01,2014-01-23 19:11:00,
2014-01-23 14:12:00,4.4,-2.0,30.52,NNW,338,3.0,10.0,74,0.00,,---,0.00,0.00,VWS V14.01,2014-01-23 19:12:00,
2014-01-23 14:13:00,4.3,-2.1,30.53,NW,321,8.0,14.0,74,0.00,,---,0.00,0.00,VWS V14.01,2014-01-23 19:13:00,
2014-01-23 14:15:00,4.1,-2.6,30.53,NW,309,4.0,6.0,73,0.00,,---,0.00,0.00,VWS V14.01,2014-01-23 19:15:00,
2014-01-23 14:16:00,4.2,-2.2,30.53,NW,313,5.0,10.0,74,0.00,,---,0.00,0.00,VWS V14.01,2014-01-23 19:16:00,
2014-01-23 14:17:00,4.3,-2.1,30.53,NW,306,4.0,9.0,74,0.00,,---,0.00,0.00,VWS V14.01,2014-01-23 19:17:00,
2014-01-23 14:18:00,4.3,-2.1,30.53,NW,313,5.0,5.0,74,0.00,,---,0.00,0.00,VWS V14.01,2014-01-23 19:18:00,
2014-01-23 14:20:00,4.4,-2.0,30.53,NW,319,6.0,9.0,74,0.00,,---,0.00,0.00,VWS V14.01,2014-01-23 19:20:00,
2014-01-23 14:21:00,4.4,-2.0,30.53,NW,320,5.0,8.0,74,0.00,,---,0.00,0.00,VWS V14.01,2014-01-23 19:21:00,
2014-01-23 14:22:00,4.4,-2.0,30.53,WNW,292,4.0,12.0,74,0.00,,---,0.00,0.00,VWS V14.01,2014-01-23 19:22:00,
2014-01-23 14:23:00,4.4,-2.0,30.53,NW,305,6.0,10.0,74,0.00,,---,0.00,0.00,VWS V14.01,2014-01-23 19:23:00,
2014-01-23 14:26:00,4.2,-2.2,30.53,NW,311,5.0,7.0,74,0.00,,---,0.00,0.00,VWS V14.01,2014-01-23 19:26:00,
2014-01-23 14:27:00,4.2,-2.2,30.53,WNW,295,10.0,10.0,74,0.00,,---,0.00,0.00,VWS V14.01,2014-01-23 19:27:00,
2014-01-23 14:28:00,4.3,-2.1,30.53,NW,309,6.0,10.0,74,0.00,,---,0.00,0.00,VWS V14.01,2014-01-23 19:28:00,
2014-01-23 14:31:00,4.4,-2.0,30.53,NNW,334,8.0,10.0,74,0.00,,---,0.00,0.00,VWS V14.01,2014-01-23 19:31:00,
2014-01-23 14:32:00,4.4,-2.0,30.54,NW,317,5.0,7.0,74,0.00,,---,0.00,0.00,VWS V14.01,2014-01-23 19:32:00,
2014-01-23 14:33:00,4.4,-1.8,30.53,NW,319,5.0,7.0,75,0.00,,---,0.00,0.00,VWS V14.01,2014-01-23 19:33:00,
2014-01-23 14:36:00,4.3,-1.9,30.53,NW,317,7.0,11.0,75,0.00,,---,0.00,0.00,VWS V14.01,2014-01-23 19:36:00,
2014-01-23 14:37:00,4.3,-1.9,30.53,NNW,339,3.0,6.0,75,0.00,,---,0.00,0.00,VWS V14.01,2014-01-23 19:37:00,
2014-01-23 14:38:00,4.3,-1.9,30.53,NW,318,5.0,7.0,75,0.00,,---,0.00,0.00,VWS V14.01,2014-01-23 19:38:00,
2014-01-23 14:39:00,4.3,-1.9,30.53,NW,313,9.0,10.0,75,0.00,,---,0.00,0.00,VWS V14.01,2014-01-23 19:39:00,
2014-01-23 14:40:00,4.2,-2.0,30.53,NNW,348,8.0,14.0,75,0.00,,---,0.00,0.00,VWS V14.01,2014-01-23 19:40:00,
2014-01-23 14:41:00,4.2,-2.0,30.53,NNW,340,5.0,7.0,75,0.00,,---,0.00,0.00,VWS V14.01,2014-01-23 19:41:00,
2014-01-23 14:42:00,4.4,-1.8,30.53,NNW,327,5.0,6.0,75,0.00,,---,0.00,0.00,VWS V14.01,2014-01-23 19:42:00,
2014-01-23 14:43:00,4.4,-1.8,30.53,NNW,331,6.0,6.0,75,0.00,,---,0.00,0.00,VWS V14.01,2014-01-23 19:43:00,
2014-01-23 14:44:00,4.4,-1.8,30.53,NW,321,7.0,7.0,75,0.00,,---,0.00,0.00,VWS V14.01,2014-01-23 19:44:00,
2014-01-23 14:45:00,4.4,-1.8,30.53,NNW,333,5.0,19.0,75,0.00,,---,0.00,0.00,VWS V14.01,2014-01-23 19:45:00,
2014-01-23 14:46:00,4.4,-1.8,30.53,NNW,331,5.0,5.0,75,0.00,,---,0.00,0.00,VWS V14.01,2014-01-23 19:46:00,
2014-01-23 14:47:00,4.2,-2.0,30.53,NW,324,6.0,8.0,75,0.00,,---,0.00,0.00,VWS V14.01,2014-01-23 19:47:00,
2014-01-23 14:48:00,4.1,-2.0,30.53,NW,319,4.0,13.0,75,0.00,,---,0.00,0.00,VWS V14.01,2014-01-23 19:48:00,
2014-01-23 14:49:00,4.1,-2.0,30.53,NNW,329,7.0,11.0,75,0.00,,---,0.00,0.00,VWS V14.01,2014-01-23 19:49:00,
2014-01-23 14:51:00,4.1,-2.0,30.53,NNW,329,2.0,4.0,75,0.00,,---,0.00,0.00,VWS V14.01,2014-01-23 19:51:00,
2014-01-23 14:52:00,4.3,-1.6,30.53,North,360,11.0,11.0,76,0.00,,---,0.00,0.00,VWS V14.01,2014-01-23 19:52:00,
2014-01-23 14:53:00,4.3,-1.9,30.54,NNW,345,12.0,12.0,75,0.00,,---,0.00,0.00,VWS V14.01,2014-01-23 19:53:00,
2014-01-23 14:54:00,4.4,-1.8,30.53,North,355,16.0,16.0,75,0.00,,---,0.00,0.00,VWS V14.01,2014-01-23 19:54:00,
2014-01-23 14:56:00,4.4,-1.8,30.53,WNW,300,13.0,13.0,75,0.00,,---,0.00,0.00,VWS V14.01,2014-01-23 19:56:00,
2014-01-23 14:58:00,4.4,-1.8,30.54,NNW,345,3.0,15.0,75,0.00,,---,0.00,0.00,VWS V14.01,2014-01-23 19:58:00,
2014-01-23 14:59:00,4.4,-1.5,30.54,NNW,334,6.0,8.0,76,0.00,,---,0.00,0.00,VWS V14.01,2014-01-23 19:59:00,
2014-01-23 15:01:00,4.2,-1.7,30.54,NW,321,4.0,8.0,76,0.00,,---,0.00,0.00,VWS V14.01,2014-01-23 20:01:00,
2014-01-23 15:03:00,4.1,-1.8,30.54,NNW,335,7.0,8.0,76,0.00,,---,0.00,0.00,VWS V14.01,2014-01-23 20:03:00,
2014-01-23 15:04:00,3.9,-1.7,30.54,North,5,9.0,12.0,77,0.00,,---,0.00,0.00,VWS V14.01,2014-01-23 20:04:00,
2014-01-23 15:06:00,3.8,-1.8,30.54,NNW,334,5.0,6.0,77,0.00,,---,0.00,0.00,VWS V14.01,2014-01-23 20:06:00,
2014-01-23 15:08:00,3.8,-1.8,30.54,NW,310,4.0,6.0,77,0.00,,---,0.00,0.00,VWS V14.01,2014-01-23 20:08:00,
2014-01-23 15:10:00,3.8,-1.8,30.54,NNW,334,8.0,10.0,77,0.00,,---,0.00,0.00,VWS V14.01,2014-01-23 20:10:00,
2014-01-23 15:11:00,3.8,-1.8,30.54,NNW,328,4.0,6.0,77,0.00,,---,0.00,0.00,VWS V14.01,2014-01-23 20:11:00,
2014-01-23 15:13:00,3.8,-1.5,30.54,NW,307,1.0,4.0,78,0.00,,---,0.00,0.00,VWS V14.01,2014-01-23 20:13:00,
2014-01-23 15:15:00,3.9,-1.4,30.54,NW,317,5.0,7.0,78,0.00,,---,0.00,0.00,VWS V14.01,2014-01-23 20:15:00,
2014-01-23 15:16:00,4.0,-1.3,30.54,NNW,337,7.0,7.0,78,0.00,,---,0.00,0.00,VWS V14.01,2014-01-23 20:16:00,
2014-01-23 15:17:00,4.0,-1.3,30.54,NNW,336,4.0,7.0,78,0.00,,---,0.00,0.00,VWS V14.01,2014-01-23 20:17:00,
2014-01-23 15:18:00,4.1,-1.2,30.54,NW,315,4.0,10.0,78,0.00,,---,0.00,0.00,VWS V14.01,2014-01-23 20:18:00,
2014-01-23 15:19:00,4.1,-1.2,30.54,WNW,292,4.0,11.0,78,0.00,,---,0.00,0.00,VWS V14.01,2014-01-23 20:19:00,
2014-01-23 15:20:00,4.0,-1.3,30.54,NW,324,4.0,7.0,78,0.00,,---,0.00,0.00,VWS V14.01,2014-01-23 20:20:00,
2014-01-23 15:22:00,4.0,-1.3,30.54,NNW,329,5.0,11.0,78,0.00,,---,0.00,0.00,VWS V14.01,2014-01-23 20:22:00,
2014-01-23 15:23:00,3.9,-1.4,30.54,NNW,335,6.0,12.0,78,0.00,,---,0.00,0.00,VWS V14.01,2014-01-23 20:23:00,
2014-01-23 15:24:00,3.8,-1.5,30.54,NNW,338,3.0,12.0,78,0.00,,---,0.00,0.00,VWS V14.01,2014-01-23 20:24:00,
2014-01-23 15:25:00,3.8,-1.5,30.54,WNW,288,3.0,7.0,78,0.00,,---,0.00,0.00,VWS V14.01,2014-01-23 20:25:00,
2014-01-23 15:27:00,3.8,-1.5,30.54,NNW,342,3.0,9.0,78,0.00,,---,0.00,0.00,VWS V14.01,2014-01-23 20:27:00,
2014-01-23 15:28:00,3.9,-1.1,30.54,NW,307,4.0,6.0,79,0.00,,---,0.00,0.00,VWS V14.01,2014-01-23 20:28:00,
2014-01-23 15:29:00,4.0,-1.0,30.54,NW,314,4.0,5.0,79,0.00,,---,0.00,0.00,VWS V14.01,2014-01-23 20:29:00,
2014-01-23 15:30:00,4.1,-0.9,30.54,NNW,330,3.0,5.0,79,0.00,,---,0.00,0.00,VWS V14.01,2014-01-23 20:30:00,
2014-01-23 15:32:00,4.2,-1.1,30.54,North,10,16.0,16.0,78,0.00,,---,0.00,0.00,VWS V14.01,2014-01-23 20:32:00,
2014-01-23 15:33:00,4.2,-1.1,30.54,NNW,333,5.0,6.0,78,0.00,,---,0.00,0.00,VWS V14.01,2014-01-23 20:33:00,
2014-01-23 15:34:00,4.3,-1.0,30.54,NNW,338,6.0,6.0,78,0.00,,---,0.00,0.00,VWS V14.01,2014-01-23 20:34:00,
2014-01-23 15:35:00,4.4,-0.9,30.54,NW,310,6.0,6.0,78,0.00,,---,0.00,0.00,VWS V14.01,2014-01-23 20:35:00,
2014-01-23 15:37:00,4.4,-0.9,30.54,NNW,348,3.0,3.0,78,0.00,,---,0.00,0.00,VWS V14.01,2014-01-23 20:37:00,
2014-01-23 15:38:00,4.5,-0.8,30.55,NNW,344,2.0,6.0,78,0.00,,---,0.00,0.00,VWS V14.01,2014-01-23 20:38:00,
2014-01-23 15:39:00,4.5,-0.8,30.55,NNW,344,1.0,6.0,78,0.00,,---,0.00,0.00,VWS V14.01,2014-01-23 20:39:00,
2014-01-23 15:40:00,4.6,-0.7,30.55,WNW,285,14.0,14.0,78,0.00,,---,0.00,0.00,VWS V14.01,2014-01-23 20:40:00,
2014-01-23 15:42:00,4.5,-0.8,30.55,NW,317,4.0,6.0,78,0.00,,---,0.00,0.00,VWS V14.01,2014-01-23 20:42:00,
2014-01-23 15:43:00,4.6,-0.7,30.55,NW,319,6.0,6.0,78,0.00,,---,0.00,0.00,VWS V14.01,2014-01-23 20:43:00,
2014-01-23 15:44:00,4.6,-0.7,30.55,NNW,346,13.0,13.0,78,0.00,,---,0.00,0.00,VWS V14.01,2014-01-23 20:44:00,
2014-01-23 15:45:00,4.7,-0.6,30.55,NNW,342,4.0,9.0,78,0.00,,---,0.00,0.00,VWS V14.01,2014-01-23 20:45:00,
2014-01-23 15:47:00,4.8,-0.5,30.55,NNW,340,4.0,6.0,78,0.00,,---,0.00,0.00,VWS V14.01,2014-01-23 20:47:00,
2014-01-23 15:48:00,4.8,-0.5,30.55,NNW,346,9.0,9.0,78,0.00,,---,0.00,0.00,VWS V14.01,2014-01-23 20:48:00,
2014-01-23 15:49:00,4.8,-0.8,30.55,NW,316,3.0,3.0,77,0.00,,---,0.00,0.00,VWS V14.01,2014-01-23 20:49:00,
2014-01-23 15:50:00,4.8,-0.8,30.55,NW,316,3.0,3.0,77,0.00,,---,0.00,0.00,VWS V14.01,2014-01-23 20:50:00,
2014-01-23 15:52:00,4.7,-0.9,30.55,NW,322,3.0,6.0,77,0.00,,---,0.00,0.00,VWS V14.01,2014-01-23 20:52:00,
2014-01-23 15:53:00,4.7,-0.9,30.55,WNW,289,7.0,7.0,77,0.00,,---,0.00,0.00,VWS V14.01,2014-01-23 20:53:00,
2014-01-23 15:54:00,4.8,-0.8,30.55,WNW,296,4.0,4.0,77,0.00,,---,0.00,0.00,VWS V14.01,2014-01-23 20:54:00,
2014-01-23 15:55:00,4.8,-0.8,30.55,NW,325,5.0,7.0,77,0.00,,---,0.00,0.00,VWS V14.01,2014-01-23 20:55:00,
2014-01-23 15:57:00,4.7,-0.9,30.55,WNW,301,6.0,9.0,77,0.00,,---,0.00,0.00,VWS V14.01,2014-01-23 20:57:00,
2014-01-23 15:58:00,4.7,-0.9,30.56,NNW,329,7.0,7.0,77,0.00,,---,0.00,0.00,VWS V14.01,2014-01-23 20:58:00,
2014-01-23 15:59:00,4.7,-0.9,30.56,NW,319,4.0,6.0,77,0.00,,---,0.00,0.00,VWS V14.01,2014-01-23 20:59:00,
2014-01-23 16:00:00,4.6,-1.0,30.56,NNW,329,4.0,7.0,77,0.00,,---,0.00,0.00,VWS V14.01,2014-01-23 21:00:00,
2014-01-23 16:03:00,4.6,-0.7,30.55,NW,319,6.0,11.0,78,0.00,,---,0.00,0.00,VWS V14.01,2014-01-23 21:03:00,
2014-01-23 16:04:00,4.6,-1.0,30.55,West,280,3.0,3.0,77,0.00,,---,0.00,0.00,VWS V14.01,2014-01-23 21:04:00,
2014-01-23 16:05:00,4.6,-1.0,30.56,NNW,337,5.0,11.0,77,0.00,,---,0.00,0.00,VWS V14.01,2014-01-23 21:05:00,
2014-01-23 16:08:00,4.5,-1.1,30.56,NW,320,7.0,7.0,77,0.00,,---,0.00,0.00,VWS V14.01,2014-01-23 21:08:00,
2014-01-23 16:09:00,4.5,-1.1,30.56,NW,325,6.0,6.0,77,0.00,,---,0.00,0.00,VWS V14.01,2014-01-23 21:09:00,
2014-01-23 16:10:00,4.5,-1.1,30.56,West,278,10.0,10.0,77,0.00,,---,0.00,0.00,VWS V14.01,2014-01-23 21:10:00,
2014-01-23 16:13:00,4.4,-1.2,30.56,NW,308,4.0,6.0,77,0.00,,---,0.00,0.00,VWS V14.01,2014-01-23 21:13:00,
2014-01-23 16:14:00,4.4,-1.2,30.56,NW,308,4.0,4.0,77,0.00,,---,0.00,0.00,VWS V14.01,2014-01-23 21:14:00,
2014-01-23 16:15:00,4.4,-0.9,30.56,NW,311,2.0,6.0,78,0.00,,---,0.00,0.00,VWS V14.01,2014-01-23 21:15:00,
2014-01-23 16:18:00,4.5,-0.8,30.56,NW,317,5.0,14.0,78,0.00,,---,0.00,0.00,VWS V14.01,2014-01-23 21:18:00,
2014-01-23 16:19:00,4.5,-0.8,30.57,WNW,302,3.0,5.0,78,0.00,,---,0.00,0.00,VWS V14.01,2014-01-23 21:19:00,
2014-01-23 16:20:00,4.4,-0.9,30.57,WNW,288,4.0,4.0,78,0.00,,---,0.00,0.00,VWS V14.01,2014-01-23 21:20:00,
2014-01-23 16:21:00,4.4,-0.9,30.57,North,360,2.0,7.0,78,0.00,,---,0.00,0.00,VWS V14.01,2014-01-23 21:21:00,
2014-01-23 16:23:00,4.3,-1.0,30.57,NW,322,5.0,9.0,78,0.00,,---,0.00,0.00,VWS V14.01,2014-01-23 21:23:00,
2014-01-23 16:24:00,4.2,-1.4,30.57,NNW,331,6.0,7.0,77,0.00,,---,0.00,0.00,VWS V14.01,2014-01-23 21:24:00,
2014-01-23 16:25:00,4.2,-1.4,30.57,WNW,301,7.0,7.0,77,0.00,,---,0.00,0.00,VWS V14.01,2014-01-23 21:25:00,
2014-01-23 16:26:00,4.2,-1.4,30.57,WNW,294,5.0,13.0,77,0.00,,---,0.00,0.00,VWS V14.01,2014-01-23 21:26:00,
2014-01-23 16:28:00,4.1,-1.5,30.57,WNW,284,9.0,9.0,77,0.00,,---,0.00,0.00,VWS V14.01,2014-01-23 21:28:00,
2014-01-23 16:29:00,4.1,-1.5,30.57,NNW,337,5.0,9.0,77,0.00,,---,0.00,0.00,VWS V14.01,2014-01-23 21:29:00,
2014-01-23 16:30:00,4.0,-1.6,30.57,NNW,334,2.0,4.0,77,0.00,,---,0.00,0.00,VWS V14.01,2014-01-23 21:30:00,
2014-01-23 16:31:00,4.0,-1.3,30.57,NNW,334,0.0,4.0,78,0.00,,---,0.00,0.00,VWS V14.01,2014-01-23 21:31:00,
2014-01-23 16:33:00,4.1,-1.2,30.57,NW,320,5.0,5.0,78,0.00,,---,0.00,0.00,VWS V14.01,2014-01-23 21:33:00,
2014-01-23 16:34:00,4.0,-1.3,30.57,NW,317,3.0,4.0,78,0.00,,---,0.00,0.00,VWS V14.01,2014-01-23 21:34:00,
2014-01-23 16:35:00,4.0,-1.0,30.57,NW,322,3.0,6.0,79,0.00,,---,0.00,0.00,VWS V14.01,2014-01-23 21:35:00,
2014-01-23 16:36:00,4.1,-0.9,30.57,NW,321,4.0,4.0,79,0.00,,---,0.00,0.00,VWS V14.01,2014-01-23 21:36:00,
2014-01-23 16:38:00,4.1,-0.9,30.57,WNW,297,2.0,2.0,79,0.00,,---,0.00,0.00,VWS V14.01,2014-01-23 21:38:00,
2014-01-23 16:39:00,4.2,-0.9,30.57,WNW,297,4.0,6.0,79,0.00,,---,0.00,0.00,VWS V14.01,2014-01-23 21:39:00,
2014-01-23 16:40:00,4.2,-0.9,30.57,NNW,346,8.0,8.0,79,0.00,,---,0.00,0.00,VWS V14.01,2014-01-23 21:40:00,
2014-01-23 16:41:00,4.3,-0.8,30.57,NW,319,7.0,8.0,79,0.00,,---,0.00,0.00,VWS V14.01,2014-01-23 21:41:00,
2014-01-23 16:43:00,4.2,-1.1,30.57,WNW,298,7.0,7.0,78,0.00,,---,0.00,0.00,VWS V14.01,2014-01-23 21:43:00,
2014-01-23 16:44:00,4.2,-1.1,30.58,NW,323,3.0,3.0,78,0.00,,---,0.00,0.00,VWS V14.01,2014-01-23 21:44:00,
2014-01-23 16:45:00,4.2,-1.1,30.58,NNW,334,3.0,4.0,78,0.00,,---,0.00,0.00,VWS V14.01,2014-01-23 21:45:00,
2014-01-23 16:46:00,4.1,-1.2,30.58,NNW,335,0.0,4.0,78,0.00,,---,0.00,0.00,VWS V14.01,2014-01-23 21:46:00,
2014-01-23 16:48:00,4.1,-1.2,30.58,NNW,346,8.0,11.0,78,0.00,,---,0.00,0.00,VWS V14.01,2014-01-23 21:48:00,
2014-01-23 16:49:00,4.1,-1.2,30.58,North,360,11.0,11.0,78,0.00,,---,0.00,0.00,VWS V14.01,2014-01-23 21:49:00,
2014-01-23 16:50:00,4.1,-1.2,30.58,NW,319,6.0,6.0,78,0.00,,---,0.00,0.00,VWS V14.01,2014-01-23 21:50:00,
2014-01-23 16:51:00,4.1,-1.2,30.58,NW,319,6.0,6.0,78,0.00,,---,0.00,0.00,VWS V14.01,2014-01-23 21:51:00,
2014-01-23 16:53:00,4.1,-1.5,30.58,NW,314,5.0,5.0,77,0.00,,---,0.00,0.00,VWS V14.01,2014-01-23 21:53:00,
2014-01-23 16:54:00,4.0,-1.6,30.58,NNW,346,5.0,8.0,77,0.00,,---,0.00,0.00,VWS V14.01,2014-01-23 21:54:00,
2014-01-23 16:55:00,4.1,-1.5,30.58,WNW,288,4.0,11.0,77,0.00,,---,0.00,0.00,VWS V14.01,2014-01-23 21:55:00,
2014-01-23 16:56:00,4.0,-1.6,30.58,NNW,331,4.0,11.0,77,0.00,,---,0.00,0.00,VWS V14.01,2014-01-23 21:56:00,
2014-01-23 16:58:00,4.0,-1.6,30.58,WNW,302,5.0,6.0,77,0.00,,---,0.00,0.00,VWS V14.01,2014-01-23 21:58:00,
2014-01-23 16:59:00,4.0,-1.6,30.58,North,350,5.0,8.0,77,0.00,,---,0.00,0.00,VWS V14.01,2014-01-23 21:59:00,
2014-01-23 17:00:00,4.0,-1.6,30.58,NNW,340,4.0,8.0,77,0.00,,---,0.00,0.00,VWS V14.01,2014-01-23 22:00:00,
2014-01-23 17:01:00,4.0,-1.6,30.58,NNW,348,10.0,10.0,77,0.00,,---,0.00,0.00,VWS V14.01,2014-01-23 22:01:00,
2014-01-23 17:03:00,3.9,-1.7,30.58,NNW,338,3.0,4.0,77,0.00,,---,0.00,0.00,VWS V14.01,2014-01-23 22:03:00,
2014-01-23 17:04:00,3.8,-1.8,30.58,NNW,331,4.0,4.0,77,0.00,,---,0.00,0.00,VWS V14.01,2014-01-23 22:04:00,
2014-01-23 17:05:00,3.8,-1.5,30.58,NW,307,6.0,6.0,78,0.00,,---,0.00,0.00,VWS V14.01,2014-01-23 22:05:00,
2014-01-23 17:06:00,3.7,-1.6,30.58,NW,325,3.0,12.0,78,0.00,,---,0.00,0.00,VWS V14.01,2014-01-23 22:06:00,
2014-01-23 17:08:00,3.6,-1.7,30.59,NW,313,1.0,5.0,78,0.00,,---,0.00,0.00,VWS V14.01,2014-01-23 22:08:00,
2014-01-23 17:09:00,3.6,-1.7,30.59,NW,315,4.0,5.0,78,0.00,,---,0.00,0.00,VWS V14.01,2014-01-23 22:09:00,
2014-01-23 17:10:00,3.6,-1.7,30.58,NNW,339,4.0,8.0,78,0.00,,---,0.00,0.00,VWS V14.01,2014-01-23 22:10:00,
2014-01-23 17:11:00,3.5,-1.5,30.58,NNW,329,5.0,7.0,79,0.00,,---,0.00,0.00,VWS V14.01,2014-01-23 22:11:00,
2014-01-23 17:13:00,3.5,-1.5,30.59,NW,321,3.0,5.0,79,0.00,,---,0.00,0.00,VWS V14.01,2014-01-23 22:13:00,
2014-01-23 17:14:00,3.5,-1.5,30.58,WNW,285,6.0,11.0,79,0.00,,---,0.00,0.00,VWS V14.01,2014-01-23 22:14:00,
2014-01-23 17:15:00,3.4,-1.6,30.58,WNW,292,2.0,4.0,79,0.00,,---,0.00,0.00,VWS V14.01,2014-01-23 22:15:00,
2014-01-23 17:16:00,3.5,-1.5,30.59,WNW,290,9.0,9.0,79,0.00,,---,0.00,0.00,VWS V14.01,2014-01-23 22:16:00,
2014-01-23 17:18:00,3.4,-1.6,30.59,NNW,344,4.0,5.0,79,0.00,,---,0.00,0.00,VWS V14.01,2014-01-23 22:18:00,
2014-01-23 17:19:00,3.3,-1.7,30.59,NW,322,3.0,7.0,79,0.00,,---,0.00,0.00,VWS V14.01,2014-01-23 22:19:00,
2014-01-23 17:20:00,3.3,-1.7,30.59,NNW,329,5.0,5.0,79,0.00,,---,0.00,0.00,VWS V14.01,2014-01-23 22:20:00,
2014-01-23 17:21:00,3.3,-1.7,30.59,NW,323,3.0,5.0,79,0.00,,---,0.00,0.00,VWS V14.01,2014-01-23 22:21:00,
2014-01-23 17:22:00,3.3,-1.7,30.59,NW,323,3.0,5.0,79,0.00,,---,0.00,0.00,VWS V14.01,2014-01-23 22:22:00,
2014-01-23 17:23:00,3.3,-1.7,30.59,NW,323,1.0,4.0,79,0.00,,---,0.00,0.00,VWS V14.01,2014-01-23 22:23:00,
2014-01-23 17:24:00,3.3,-1.7,30.59,NW,325,2.0,5.0,79,0.00,,---,0.00,0.00,VWS V14.01,2014-01-23 22:24:00,
2014-01-23 17:25:00,3.3,-1.7,30.59,NW,325,2.0,5.0,79,0.00,,---,0.00,0.00,VWS V14.01,2014-01-23 22:25:00,
2014-01-23 17:26:00,3.3,-1.7,30.59,NW,315,5.0,6.0,79,0.00,,---,0.00,0.00,VWS V14.01,2014-01-23 22:26:00,
2014-01-23 17:27:00,3.2,-1.8,30.59,NNW,342,3.0,7.0,79,0.00,,---,0.00,0.00,VWS V14.01,2014-01-23 22:27:00,
2014-01-23 17:29:00,3.2,-1.8,30.59,NNW,341,3.0,6.0,79,0.00,,---,0.00,0.00,VWS V14.01,2014-01-23 22:29:00,
2014-01-23 17:30:00,3.2,-1.8,30.59,NNW,332,5.0,5.0,79,0.00,,---,0.00,0.00,VWS V14.01,2014-01-23 22:30:00,
2014-01-23 17:31:00,3.1,-1.9,30.59,NNW,329,2.0,2.0,79,0.00,,---,0.00,0.00,VWS V14.01,2014-01-23 22:31:00,
2014-01-23 17:32:00,3.1,-1.9,30.59,NW,319,5.0,8.0,79,0.00,,---,0.00,0.00,VWS V14.01,2014-01-23 22:32:00,
2014-01-23 17:34:00,3.0,-2.0,30.59,WNW,300,2.0,7.0,79,0.00,,---,0.00,0.00,VWS V14.01,2014-01-23 22:34:00,
2014-01-23 17:35:00,3.0,-2.0,30.59,NW,304,5.0,5.0,79,0.00,,---,0.00,0.00,VWS V14.01,2014-01-23 22:35:00,
2014-01-23 17:36:00,2.9,-2.1,30.59,NW,324,3.0,5.0,79,0.00,,---,0.00,0.00,VWS V14.01,2014-01-23 22:36:00,
2014-01-23 17:37:00,2.9,-2.1,30.59,NW,323,3.0,3.0,79,0.00,,---,0.00,0.00,VWS V14.01,2014-01-23 22:37:00,
2014-01-23 17:39:00,2.9,-1.9,30.59,NW,323,4.0,4.0,80,0.00,,---,0.00,0.00,VWS V14.01,2014-01-23 22:39:00,
2014-01-23 17:40:00,2.8,-2.0,30.59,NW,325,2.0,5.0,80,0.00,,---,0.00,0.00,VWS V14.01,2014-01-23 22:40:00,
2014-01-23 17:41:00,2.8,-2.0,30.59,NW,325,1.0,1.0,80,0.00,,---,0.00,0.00,VWS V14.01,2014-01-23 22:41:00,
2014-01-23 17:42:00,2.8,-2.0,30.59,NNW,345,1.0,1.0,80,0.00,,---,0.00,0.00,VWS V14.01,2014-01-23 22:42:00,
2014-01-23 17:44:00,2.7,-2.0,30.59,NNW,339,3.0,7.0,80,0.00,,---,0.00,0.00,VWS V14.01,2014-01-23 22:44:00,
2014-01-23 17:45:00,2.7,-2.0,30.59,NNW,340,1.0,1.0,80,0.00,,---,0.00,0.00,VWS V14.01,2014-01-23 22:45:00,
2014-01-23 17:46:00,2.7,-2.0,30.59,NNW,336,2.0,4.0,80,0.00,,---,0.00,0.00,VWS V14.01,2014-01-23 22:46:00,
2014-01-23 17:47:00,2.7,-2.0,30.59,NW,321,3.0,4.0,80,0.00,,---,0.00,0.00,VWS V14.01,2014-01-23 22:47:00,
2014-01-23 17:49:00,2.6,-2.2,30.59,WNW,300,4.0,5.0,80,0.00,,---,0.00,0.00,VWS V14.01,2014-01-23 22:49:00,
2014-01-23 17:50:00,2.6,-2.2,30.59,NW,317,2.0,2.0,80,0.00,,---,0.00,0.00,VWS V14.01,2014-01-23 22:50:00,
2014-01-23 17:51:00,2.6,-2.2,30.59,NNW,348,7.0,7.0,80,0.00,,---,0.00,0.00,VWS V14.01,2014-01-23 22:51:00,
2014-01-23 17:52:00,2.5,-2.2,30.59,NNW,329,5.0,5.0,80,0.00,,---,0.00,0.00,VWS V14.01,2014-01-23 22:52:00,
2014-01-23 17:54:00,2.5,-2.2,30.59,NNW,327,3.0,3.0,80,0.00,,---,0.00,0.00,VWS V14.01,2014-01-23 22:54:00,
2014-01-23 17:55:00,2.5,-2.2,30.60,NNW,327,1.0,2.0,80,0.00,,---,0.00,0.00,VWS V14.01,2014-01-23 22:55:00,
2014-01-23 17:56:00,2.4,-2.3,30.59,NNW,327,2.0,2.0,80,0.00,,---,0.00,0.00,VWS V14.01,2014-01-23 22:56:00,
2014-01-23 17:57:00,2.4,-2.1,30.60,NW,326,3.0,4.0,81,0.00,,---,0.00,0.00,VWS V14.01,2014-01-23 22:57:00,
2014-01-23 17:59:00,2.4,-2.3,30.59,NNW,337,4.0,5.0,80,0.00,,---,0.00,0.00,VWS V14.01,2014-01-23 22:59:00,
2014-01-23 18:00:00,2.4,-2.3,30.60,NW,305,4.0,4.0,80,0.00,,---,0.00,0.00,VWS V14.01,2014-01-23 23:00:00,
2014-01-23 18:01:00,2.4,-2.3,30.60,NW,305,3.0,4.0,80,0.00,,---,0.00,0.00,VWS V14.01,2014-01-23 23:01:00,
2014-01-23 18:02:00,2.4,-2.3,30.60,NNW,327,3.0,3.0,80,0.00,,---,0.00,0.00,VWS V14.01,2014-01-23 23:02:00,
2014-01-23 18:03:00,2.4,-2.3,30.60,NNW,327,0.0,2.0,80,0.00,,---,0.00,0.00,VWS V14.01,2014-01-23 23:03:00,
2014-01-23 18:04:00,2.3,-2.4,30.60,NNW,327,1.0,4.0,80,0.00,,---,0.00,0.00,VWS V14.01,2014-01-23 23:04:00,
2014-01-23 18:05:00,2.3,-2.4,30.60,NNW,329,2.0,4.0,80,0.00,,---,0.00,0.00,VWS V14.01,2014-01-23 23:05:00,
2014-01-23 18:06:00,2.3,-2.4,30.60,NNW,329,3.0,3.0,80,0.00,,---,0.00,0.00,VWS V14.01,2014-01-23 23:06:00,
2014-01-23 18:07:00,2.3,-2.4,30.60,NNW,329,1.0,3.0,80,0.00,,---,0.00,0.00,VWS V14.01,2014-01-23 23:07:00,
2014-01-23 18:08:00,2.3,-2.4,30.60,NNW,330,3.0,5.0,80,0.00,,---,0.00,0.00,VWS V14.01,2014-01-23 23:08:00,
2014-01-23 18:09:00,2.3,-2.4,30.60,NNW,327,4.0,4.0,80,0.00,,---,0.00,0.00,VWS V14.01,2014-01-23 23:09:00,
2014-01-23 18:10:00,2.3,-2.4,30.60,NNW,327,3.0,4.0,80,0.00,,---,0.00,0.00,VWS V14.01,2014-01-23 23:10:00,
2014-01-23 18:11:00,2.3,-2.4,30.60,NNW,348,5.0,9.0,80,0.00,,---,0.00,0.00,VWS V14.01,2014-01-23 23:11:00,
2014-01-23 18:13:00,2.3,-2.4,30.60,NNW,348,2.0,3.0,80,0.00,,---,0.00,0.00,VWS V14.01,2014-01-23 23:13:00,
2014-01-23 18:14:00,2.2,-2.5,30.60,NNW,348,2.0,3.0,80,0.00,,---,0.00,0.00,VWS V14.01,2014-01-23 23:14:00,
2014-01-23 18:15:00,2.2,-2.5,30.60,NNW,348,1.0,3.0,80,0.00,,---,0.00,0.00,VWS V14.01,2014-01-23 23:15:00,
2014-01-23 18:16:00,2.2,-2.5,30.60,NNW,347,3.0,4.0,80,0.00,,---,0.00,0.00,VWS V14.01,2014-01-23 23:16:00,
2014-01-23 18:18:00,2.2,-2.5,30.60,NNW,338,5.0,6.0,80,0.00,,---,0.00,0.00,VWS V14.01,2014-01-23 23:18:00,
2014-01-23 18:19:00,2.2,-2.3,30.60,NNW,348,1.0,2.0,81,0.00,,---,0.00,0.00,VWS V14.01,2014-01-23 23:19:00,
2014-01-23 18:20:00,2.2,-2.3,30.60,NNW,348,1.0,1.0,81,0.00,,---,0.00,0.00,VWS V14.01,2014-01-23 23:20:00,
2014-01-23 18:21:00,2.2,-2.3,30.60,NNW,348,1.0,2.0,81,0.00,,---,0.00,0.00,VWS V14.01,2014-01-23 23:21:00,
2014-01-23 18:23:00,2.1,-2.4,30.61,NW,325,4.0,4.0,81,0.00,,---,0.00,0.00,VWS V14.01,2014-01-23 23:23:00,
2014-01-23 18:24:00,2.1,-2.4,30.60,NW,313,3.0,7.0,81,0.00,,---,0.00,0.00,VWS V14.01,2014-01-23 23:24:00,
2014-01-23 18:25:00,2.1,-2.4,30.60,NW,313,1.0,3.0,81,0.00,,---,0.00,0.00,VWS V14.01,2014-01-23 23:25:00,
2014-01-23 18:26:00,2.0,-2.7,30.60,NW,316,4.0,5.0,80,0.00,,---,0.00,0.00,VWS V14.01,2014-01-23 23:26:00,
2014-01-23 18:27:00,2.0,-2.7,30.60,NW,316,1.0,5.0,80,0.00,,---,0.00,0.00,VWS V14.01,2014-01-23 23:27:00,
2014-01-23 18:28:00,2.0,-2.7,30.61,NW,316,2.0,2.0,80,0.00,,---,0.00,0.00,VWS V14.01,2014-01-23 23:28:00,
2014-01-23 18:29:00,2.0,-2.7,30.61,NW,316,2.0,2.0,80,0.00,,---,0.00,0.00,VWS V14.01,2014-01-23 23:29:00,
2014-01-23 18:30:00,2.0,-2.7,30.61,NW,317,1.0,1.0,80,0.00,,---,0.00,0.00,VWS V14.01,2014-01-23 23:30:00,
2014-01-23 18:31:00,1.9,-2.6,30.61,NW,318,2.0,3.0,81,0.00,,---,0.00,0.00,VWS V14.01,2014-01-23 23:31:00,
2014-01-23 18:32:00,1.9,-2.6,30.61,NW,318,2.0,3.0,81,0.00,,---,0.00,0.00,VWS V14.01,2014-01-23 23:32:00,
2014-01-23 18:33:00,1.9,-2.6,30.61,NW,318,2.0,3.0,81,0.00,,---,0.00,0.00,VWS V14.01,2014-01-23 23:33:00,
2014-01-23 18:34:00,1.9,-2.6,30.61,NW,323,3.0,3.0,81,0.00,,---,0.00,0.00,VWS V14.01,2014-01-23 23:34:00,
2014-01-23 18:35:00,1.9,-2.6,30.61,NW,323,3.0,3.0,81,0.00,,---,0.00,0.00,VWS V14.01,2014-01-23 23:35:00,
2014-01-23 18:36:00,1.9,-2.6,30.61,NNW,338,4.0,5.0,81,0.00,,---,0.00,0.00,VWS V14.01,2014-01-23 23:36:00,
2014-01-23 18:37:00,1.9,-2.6,30.61,NW,321,3.0,4.0,81,0.00,,---,0.00,0.00,VWS V14.01,2014-01-23 23:37:00,
2014-01-23 18:38:00,1.8,-2.7,30.61,NW,321,3.0,3.0,81,0.00,,---,0.00,0.00,VWS V14.01,2014-01-23 23:38:00,
2014-01-23 18:39:00,1.8,-2.7,30.61,WNW,296,6.0,6.0,81,0.00,,---,0.00,0.00,VWS V14.01,2014-01-23 23:39:00,
2014-01-23 18:40:00,1.8,-2.7,30.61,WNW,296,3.0,3.0,81,0.00,,---,0.00,0.00,VWS V14.01,2014-01-23 23:40:00,
2014-01-23 18:41:00,1.8,-2.7,30.61,NNW,345,2.0,5.0,81,0.00,,---,0.00,0.00,VWS V14.01,2014-01-23 23:41:00,
2014-01-23 18:42:00,1.8,-2.7,30.61,NNW,339,4.0,4.0,81,0.00,,---,0.00,0.00,VWS V14.01,2014-01-23 23:42:00,
2014-01-23 18:43:00,1.8,-2.7,30.61,NNW,337,2.0,4.0,81,0.00,,---,0.00,0.00,VWS V14.01,2014-01-23 23:43:00,
2014-01-23 18:44:00,1.8,-2.7,30.61,NNW,339,4.0,8.0,81,0.00,,---,0.00,0.00,VWS V14.01,2014-01-23 23:44:00,
2014-01-23 18:45:00,1.8,-2.7,30.61,North,350,3.0,7.0,81,0.00,,---,0.00,0.00,VWS V14.01,2014-01-23 23:45:00,
2014-01-23 18:47:00,1.8,-2.7,30.61,NNW,338,3.0,4.0,81,0.00,,---,0.00,0.00,VWS V14.01,2014-01-23 23:47:00,
2014-01-23 18:48:00,1.7,-2.8,30.61,NW,309,4.0,6.0,81,0.00,,---,0.00,0.00,VWS V14.01,2014-01-23 23:48:00,
2014-01-23 18:49:00,1.7,-2.8,30.61,NW,319,3.0,6.0,81,0.00,,---,0.00,0.00,VWS V14.01,2014-01-23 23:49:00,
2014-01-23 18:50:00,1.7,-2.8,30.61,NW,319,1.0,2.0,81,0.00,,---,0.00,0.00,VWS V14.01,2014-01-23 23:50:00,
2014-01-23 18:52:00,1.7,-2.8,30.61,NW,319,1.0,1.0,81,0.00,,---,0.00,0.00,VWS V14.01,2014-01-23 23:52:00,
2014-01-23 18:53:00,1.7,-2.8,30.61,NW,319,1.0,1.0,81,0.00,,---,0.00,0.00,VWS V14.01,2014-01-23 23:53:00,
2014-01-23 18:54:00,1.7,-2.8,30.61,NW,319,1.0,1.0,81,0.00,,---,0.00,0.00,VWS V14.01,2014-01-23 23:54:00,
2014-01-23 18:55:00,1.7,-2.8,30.61,NW,319,1.0,1.0,81,0.00,,---,0.00,0.00,VWS V14.01,2014-01-23 23:55:00,
2014-01-23 18:57:00,1.7,-2.8,30.61,NW,319,1.0,1.0,81,0.00,,---,0.00,0.00,VWS V14.01,2014-01-23 23:57:00,
2014-01-23 18:59:00,1.5,-3.0,30.61,NW,316,0.0,3.0,81,0.00,,---,0.00,0.00,VWS V14.01,2014-01-23 23:59:00,
2014-01-23 19:00:00,1.5,-3.0,30.61,NW,316,3.0,3.0,81,0.00,,---,0.00,0.00,VWS V14.01,2014-01-24 00:00:00,
2014-01-23 19:02:00,1.5,-3.0,30.61,NW,316,4.0,4.0,81,0.00,,---,0.00,0.00,VWS V14.01,2014-01-24 00:02:00,
2014-01-23 19:04:00,1.5,-3.0,30.61,NW,317,1.0,3.0,81,0.00,,---,0.00,0.00,VWS V14.01,2014-01-24 00:04:00,
2014-01-23 19:05:00,1.4,-3.1,30.61,NW,317,3.0,4.0,81,0.00,,---,0.00,0.00,VWS V14.01,2014-01-24 00:05:00,
2014-01-23 19:07:00,1.4,-3.1,30.61,NW,322,4.0,4.0,81,0.00,,---,0.00,0.00,VWS V14.01,2014-01-24 00:07:00,
2014-01-23 19:08:00,1.4,-3.1,30.61,NW,323,0.0,2.0,81,0.00,,---,0.00,0.00,VWS V14.01,2014-01-24 00:08:00,
2014-01-23 19:09:00,1.4,-3.1,30.61,NW,323,3.0,4.0,81,0.00,,---,0.00,0.00,VWS V14.01,2014-01-24 00:09:00,
2014-01-23 19:10:00,1.4,-3.1,30.61,NW,323,2.0,4.0,81,0.00,,---,0.00,0.00,VWS V14.01,2014-01-24 00:10:00,
2014-01-23 19:12:00,1.4,-2.8,30.61,NW,323,2.0,3.0,82,0.00,,---,0.00,0.00,VWS V14.01,2014-01-24 00:12:00,
2014-01-23 19:13:00,1.4,-2.8,30.61,NW,323,2.0,2.0,82,0.00,,---,0.00,0.00,VWS V14.01,2014-01-24 00:13:00,
2014-01-23 19:14:00,1.4,-2.8,30.61,NW,323,2.0,3.0,82,0.00,,---,0.00,0.00,VWS V14.01,2014-01-24 00:14:00,
2014-01-23 19:15:00,1.4,-2.8,30.61,NW,323,1.0,3.0,82,0.00,,---,0.00,0.00,VWS V14.01,2014-01-24 00:15:00,
2014-01-23 19:16:00,1.4,-2.8,30.61,NW,323,2.0,3.0,82,0.00,,---,0.00,0.00,VWS V14.01,2014-01-24 00:16:00,
2014-01-23 19:17:00,1.4,-2.8,30.61,NW,323,1.0,3.0,82,0.00,,---,0.00,0.00,VWS V14.01,2014-01-24 00:17:00,
2014-01-23 19:18:00,1.4,-3.1,30.62,NW,323,2.0,2.0,81,0.00,,---,0.00,0.00,VWS V14.01,2014-01-24 00:18:00,
2014-01-23 19:19:00,1.4,-3.1,30.62,NW,323,1.0,3.0,81,0.00,,---,0.00,0.00,VWS V14.01,2014-01-24 00:19:00,
2014-01-23 19:20:00,1.4,-3.1,30.62,NNW,331,2.0,2.0,81,0.00,,---,0.00,0.00,VWS V14.01,2014-01-24 00:20:00,
2014-01-23 19:21:00,1.3,-2.9,30.62,NNW,331,1.0,2.0,82,0.00,,---,0.00,0.00,VWS V14.01,2014-01-24 00:21:00,
2014-01-23 19:22:00,1.4,-2.8,30.61,NNW,330,2.0,3.0,82,0.00,,---,0.00,0.00,VWS V14.01,2014-01-24 00:22:00,
2014-01-23 19:23:00,1.4,-2.8,30.61,NNW,330,1.0,2.0,82,0.00,,---,0.00,0.00,VWS V14.01,2014-01-24 00:23:00,
2014-01-23 19:24:00,1.4,-2.8,30.62,NNW,329,1.0,3.0,82,0.00,,---,0.00,0.00,VWS V14.01,2014-01-24 00:24:00,
2014-01-23 19:25:00,1.4,-2.8,30.62,NNW,330,1.0,3.0,82,0.00,,---,0.00,0.00,VWS V14.01,2014-01-24 00:25:00,
2014-01-23 19:26:00,1.4,-2.8,30.62,NNW,330,2.0,3.0,82,0.00,,---,0.00,0.00,VWS V14.01,2014-01-24 00:26:00,
2014-01-23 19:27:00,1.3,-2.9,30.62,NNW,331,1.0,5.0,82,0.00,,---,0.00,0.00,VWS V14.01,2014-01-24 00:27:00,
2014-01-23 19:28:00,1.3,-2.9,30.62,NNW,331,1.0,2.0,82,0.00,,---,0.00,0.00,VWS V14.01,2014-01-24 00:28:00,
2014-01-23 19:29:00,1.3,-2.9,30.62,NNW,331,0.0,2.0,82,0.00,,---,0.00,0.00,VWS V14.01,2014-01-24 00:29:00,
2014-01-23 19:30:00,1.3,-2.9,30.62,NNW,340,1.0,7.0,82,0.00,,---,0.00,0.00,VWS V14.01,2014-01-24 00:30:00,
2014-01-23 19:31:00,1.3,-2.9,30.62,NNW,340,3.0,3.0,82,0.00,,---,0.00,0.00,VWS V14.01,2014-01-24 00:31:00,
2014-01-23 19:33:00,1.3,-2.9,30.62,NNW,338,0.0,2.0,82,0.00,,---,0.00,0.00,VWS V14.01,2014-01-24 00:33:00,
2014-01-23 19:34:00,1.3,-2.9,30.62,NNW,336,6.0,6.0,82,0.00,,---,0.00,0.00,VWS V14.01,2014-01-24 00:34:00,
2014-01-23 19:35:00,1.3,-2.9,30.62,NNW,336,2.0,3.0,82,0.00,,---,0.00,0.00,VWS V14.01,2014-01-24 00:35:00,
2014-01-23 19:36:00,1.3,-2.9,30.62,NNW,336,0.0,1.0,82,0.00,,---,0.00,0.00,VWS V14.01,2014-01-24 00:36:00,
2014-01-23 19:38:00,1.3,-2.9,30.62,NNW,336,0.0,0.0,82,0.00,,---,0.00,0.00,VWS V14.01,2014-01-24 00:38:00,
2014-01-23 19:39:00,1.3,-2.9,30.62,North,350,1.0,3.0,82,0.00,,---,0.00,0.00,VWS V14.01,2014-01-24 00:39:00,
2014-01-23 19:41:00,1.3,-2.9,30.62,North,350,1.0,1.0,82,0.00,,---,0.00,0.00,VWS V14.01,2014-01-24 00:41:00,
2014-01-23 19:43:00,1.3,-2.9,30.62,NW,323,1.0,4.0,82,0.00,,---,0.00,0.00,VWS V14.01,2014-01-24 00:43:00,
2014-01-23 19:44:00,1.3,-2.9,30.62,NW,323,2.0,3.0,82,0.00,,---,0.00,0.00,VWS V14.01,2014-01-24 00:44:00,
2014-01-23 19:46:00,1.3,-2.9,30.62,NW,324,2.0,4.0,82,0.00,,---,0.00,0.00,VWS V14.01,2014-01-24 00:46:00,
2014-01-23 19:48:00,1.3,-2.9,30.62,NNW,331,6.0,6.0,82,0.00,,---,0.00,0.00,VWS V14.01,2014-01-24 00:48:00,
2014-01-23 19:49:00,1.3,-2.9,30.62,NNW,331,2.0,3.0,82,0.00,,---,0.00,0.00,VWS V14.01,2014-01-24 00:49:00,
2014-01-23 19:51:00,1.3,-2.9,30.62,NNW,333,1.0,1.0,82,0.00,,---,0.00,0.00,VWS V14.01,2014-01-24 00:51:00,
2014-01-23 19:53:00,1.2,-3.0,30.62,NNW,333,1.0,1.0,82,0.00,,---,0.00,0.00,VWS V14.01,2014-01-24 00:53:00,
2014-01-23 19:54:00,1.2,-3.0,30.62,NNW,333,2.0,4.0,82,0.00,,---,0.00,0.00,VWS V14.01,2014-01-24 00:54:00,
2014-01-23 19:56:00,1.1,-3.1,30.62,NNW,332,1.0,3.0,82,0.00,,---,0.00,0.00,VWS V14.01,2014-01-24 00:56:00,
2014-01-23 19:58:00,1.1,-3.1,30.62,NNW,332,4.0,4.0,82,0.00,,---,0.00,0.00,VWS V14.01,2014-01-24 00:58:00,
2014-01-23 20:00:00,1.1,-3.1,30.62,NNW,332,1.0,2.0,82,0.00,,---,0.00,0.00,VWS V14.01,2014-01-24 01:00:00,
2014-01-23 20:01:00,1.1,-3.1,30.62,NNW,331,3.0,4.0,82,0.00,,---,0.00,0.00,VWS V14.01,2014-01-24 01:01:00,
2014-01-23 20:03:00,1.0,-3.2,30.62,NNW,327,3.0,3.0,82,0.00,,---,0.00,0.00,VWS V14.01,2014-01-24 01:03:00,
2014-01-23 20:04:00,1.0,-3.2,30.62,NNW,327,2.0,2.0,82,0.00,,---,0.00,0.00,VWS V14.01,2014-01-24 01:04:00,
2014-01-23 20:05:00,1.0,-3.2,30.62,NNW,327,2.0,2.0,82,0.00,,---,0.00,0.00,VWS V14.01,2014-01-24 01:05:00,
2014-01-23 20:06:00,1.0,-3.2,30.62,NNW,327,0.0,1.0,82,0.00,,---,0.00,0.00,VWS V14.01,2014-01-24 01:06:00,
2014-01-23 20:08:00,1.0,-3.2,30.62,NNW,329,3.0,3.0,82,0.00,,---,0.00,0.00,VWS V14.01,2014-01-24 01:08:00,
2014-01-23 20:09:00,1.0,-3.2,30.62,NNW,329,3.0,4.0,82,0.00,,---,0.00,0.00,VWS V14.01,2014-01-24 01:09:00,
2014-01-23 20:10:00,1.0,-3.2,30.62,NNW,329,1.0,2.0,82,0.00,,---,0.00,0.00,VWS V14.01,2014-01-24 01:10:00,
2014-01-23 20:11:00,1.0,-3.2,30.62,NNW,329,2.0,2.0,82,0.00,,---,0.00,0.00,VWS V14.01,2014-01-24 01:11:00,
2014-01-23 20:12:00,0.9,-3.3,30.62,NNW,329,1.0,3.0,82,0.00,,---,0.00,0.00,VWS V14.01,2014-01-24 01:12:00,
2014-01-23 20:14:00,0.9,-3.3,30.62,NNW,329,2.0,4.0,82,0.00,,---,0.00,0.00,VWS V14.01,2014-01-24 01:14:00,
2014-01-23 20:15:00,0.9,-3.3,30.62,NNW,329,3.0,3.0,82,0.00,,---,0.00,0.00,VWS V14.01,2014-01-24 01:15:00,
2014-01-23 20:16:00,0.9,-3.3,30.62,NNW,329,3.0,4.0,82,0.00,,---,0.00,0.00,VWS V14.01,2014-01-24 01:16:00,
2014-01-23 20:17:00,0.9,-3.3,30.62,NNW,338,7.0,7.0,82,0.00,,---,0.00,0.00,VWS V14.01,2014-01-24 01:17:00,
2014-01-23 20:18:00,0.9,-3.3,30.62,NNW,340,1.0,1.0,82,0.00,,---,0.00,0.00,VWS V14.01,2014-01-24 01:18:00,
2014-01-23 20:19:00,0.9,-3.3,30.62,NNW,341,1.0,1.0,82,0.00,,---,0.00,0.00,VWS V14.01,2014-01-24 01:19:00,
2014-01-23 20:20:00,0.9,-3.3,30.62,NNW,336,3.0,4.0,82,0.00,,---,0.00,0.00,VWS V14.01,2014-01-24 01:20:00,
2014-01-23 20:21:00,0.9,-3.3,30.62,NNW,338,1.0,6.0,82,0.00,,---,0.00,0.00,VWS V14.01,2014-01-24 01:21:00,
2014-01-23 20:22:00,0.9,-3.3,30.62,NNW,338,0.0,1.0,82,0.00,,---,0.00,0.00,VWS V14.01,2014-01-24 01:22:00,
2014-01-23 20:23:00,0.9,-3.3,30.62,NNW,338,2.0,2.0,82,0.00,,---,0.00,0.00,VWS V14.01,2014-01-24 01:23:00,
2014-01-23 20:24:00,0.9,-3.3,30.62,NNW,338,1.0,2.0,82,0.00,,---,0.00,0.00,VWS V14.01,2014-01-24 01:24:00,
2014-01-23 20:25:00,0.9,-3.3,30.62,NNW,337,1.0,4.0,82,0.00,,---,0.00,0.00,VWS V14.01,2014-01-24 01:25:00,
2014-01-23 20:26:00,0.9,-3.3,30.62,NNW,337,1.0,3.0,82,0.00,,---,0.00,0.00,VWS V14.01,2014-01-24 01:26:00,
2014-01-23 20:27:00,0.9,-3.3,30.62,NW,324,2.0,3.0,82,0.00,,---,0.00,0.00,VWS V14.01,2014-01-24 01:27:00,
2014-01-23 20:28:00,0.9,-3.3,30.62,NW,324,2.0,2.0,82,0.00,,---,0.00,0.00,VWS V14.01,2014-01-24 01:28:00,
2014-01-23 20:29:00,0.9,-3.0,30.62,NNW,341,1.0,4.0,83,0.00,,---,0.00,0.00,VWS V14.01,2014-01-24 01:29:00,
2014-01-23 20:30:00,0.9,-3.0,30.62,NNW,338,2.0,4.0,83,0.00,,---,0.00,0.00,VWS V14.01,2014-01-24 01:30:00,
2014-01-23 20:31:00,0.9,-3.0,30.62,WNW,301,6.0,6.0,83,0.00,,---,0.00,0.00,VWS V14.01,2014-01-24 01:31:00,
2014-01-23 20:32:00,0.9,-3.0,30.62,WNW,302,2.0,3.0,83,0.00,,---,0.00,0.00,VWS V14.01,2014-01-24 01:32:00,
2014-01-23 20:33:00,0.9,-3.0,30.62,WNW,302,2.0,2.0,83,0.00,,---,0.00,0.00,VWS V14.01,2014-01-24 01:33:00,
2014-01-23 20:34:00,0.9,-3.0,30.62,NW,304,2.0,4.0,83,0.00,,---,0.00,0.00,VWS V14.01,2014-01-24 01:34:00,
2014-01-23 20:35:00,0.9,-3.0,30.62,NW,311,3.0,3.0,83,0.00,,---,0.00,0.00,VWS V14.01,2014-01-24 01:35:00,
2014-01-23 20:36:00,0.8,-3.4,30.62,WNW,303,1.0,3.0,82,0.00,,---,0.00,0.00,VWS V14.01,2014-01-24 01:36:00,
2014-01-23 20:37:00,0.8,-3.1,30.62,NW,304,2.0,3.0,83,0.00,,---,0.00,0.00,VWS V14.01,2014-01-24 01:37:00,
2014-01-23 20:38:00,0.8,-3.1,30.62,NW,304,2.0,2.0,83,0.00,,---,0.00,0.00,VWS V14.01,2014-01-24 01:38:00,
2014-01-23 20:39:00,0.8,-3.1,30.62,NW,304,2.0,3.0,83,0.00,,---,0.00,0.00,VWS V14.01,2014-01-24 01:39:00,
2014-01-23 20:40:00,0.8,-3.1,30.62,NW,304,1.0,2.0,83,0.00,,---,0.00,0.00,VWS V14.01,2014-01-24 01:40:00,
2014-01-23 20:41:00,0.7,-3.2,30.62,NW,304,2.0,3.0,83,0.00,,---,0.00,0.00,VWS V14.01,2014-01-24 01:41:00,
2014-01-23 20:42:00,0.7,-3.2,30.62,NW,304,2.0,3.0,83,0.00,,---,0.00,0.00,VWS V14.01,2014-01-24 01:42:00,
2014-01-23 20:43:00,0.7,-3.2,30.62,NW,306,1.0,3.0,83,0.00,,---,0.00,0.00,VWS V14.01,2014-01-24 01:43:00,
2014-01-23 20:44:00,0.7,-3.2,30.62,NW,307,4.0,5.0,83,0.00,,---,0.00,0.00,VWS V14.01,2014-01-24 01:44:00,
2014-01-23 20:45:00,0.7,-3.2,30.62,NW,307,3.0,3.0,83,0.00,,---,0.00,0.00,VWS V14.01,2014-01-24 01:45:00,
2014-01-23 20:46:00,0.7,-3.2,30.62,NW,307,1.0,2.0,83,0.00,,---,0.00,0.00,VWS V14.01,2014-01-24 01:46:00,
2014-01-23 20:47:00,0.7,-3.2,30.62,NW,307,1.0,2.0,83,0.00,,---,0.00,0.00,VWS V14.01,2014-01-24 01:47:00,
2014-01-23 20:48:00,0.7,-3.2,30.62,North,355,6.0,9.0,83,0.00,,---,0.00,0.00,VWS V14.01,2014-01-24 01:48:00,
2014-01-23 20:50:00,0.7,-3.2,30.62,North,355,0.0,0.0,83,0.00,,---,0.00,0.00,VWS V14.01,2014-01-24 01:50:00,
2014-01-23 20:52:00,0.7,-3.2,30.62,North,355,0.0,4.0,83,0.00,,---,0.00,0.00,VWS V14.01,2014-01-24 01:52:00,
2014-01-23 20:54:00,0.7,-3.2,30.62,NW,311,3.0,6.0,83,0.00,,---,0.00,0.00,VWS V14.01,2014-01-24 01:54:00,
2014-01-23 20:55:00,0.7,-3.2,30.62,NW,311,1.0,2.0,83,0.00,,---,0.00,0.00,VWS V14.01,2014-01-24 01:55:00,
2014-01-23 20:57:00,0.7,-3.2,30.62,NW,311,0.0,2.0,83,0.00,,---,0.00,0.00,VWS V14.01,2014-01-24 01:57:00,
2014-01-23 20:59:00,0.7,-3.2,30.62,NW,320,2.0,5.0,83,0.00,,---,0.00,0.00,VWS V14.01,2014-01-24 01:59:00,
2014-01-23 21:00:00,0.7,-3.2,30.62,NW,320,0.0,2.0,83,0.00,,---,0.00,0.00,VWS V14.01,2014-01-24 02:00:00,
2014-01-23 21:02:00,0.7,-3.2,30.62,NW,320,3.0,3.0,83,0.00,,---,0.00,0.00,VWS V14.01,2014-01-24 02:02:00,
2014-01-23 21:04:00,0.6,-3.3,30.62,NW,320,0.0,2.0,83,0.00,,---,0.00,0.00,VWS V14.01,2014-01-24 02:04:00,
2014-01-23 21:05:00,0.6,-3.3,30.62,NW,320,1.0,2.0,83,0.00,,---,0.00,0.00,VWS V14.01,2014-01-24 02:05:00,
2014-01-23 21:06:00,0.6,-3.3,30.62,NNW,330,2.0,4.0,83,0.00,,---,0.00,0.00,VWS V14.01,2014-01-24 02:06:00,
2014-01-23 21:07:00,0.6,-3.3,30.62,NNW,329,4.0,4.0,83,0.00,,---,0.00,0.00,VWS V14.01,2014-01-24 02:07:00,
2014-01-23 21:09:00,0.7,-3.2,30.62,NNW,348,4.0,7.0,83,0.00,,---,0.00,0.00,VWS V14.01,2014-01-24 02:09:00,
2014-01-23 21:10:00,0.7,-3.2,30.62,NNW,348,2.0,2.0,83,0.00,,---,0.00,0.00,VWS V14.01,2014-01-24 02:10:00,
2014-01-23 21:11:00,0.7,-3.2,30.62,NNW,347,2.0,5.0,83,0.00,,---,0.00,0.00,VWS V14.01,2014-01-24 02:11:00,
2014-01-23 21:12:00,0.7,-3.2,30.62,NNW,346,2.0,5.0,83,0.00,,---,0.00,0.00,VWS V14.01,2014-01-24 02:12:00,
2014-01-23 21:14:00,0.8,-3.1,30.62,NNW,346,1.0,6.0,83,0.00,,---,0.00,0.00,VWS V14.01,2014-01-24 02:14:00,
2014-01-23 21:15:00,0.8,-3.1,30.62,NNW,346,5.0,5.0,83,0.00,,---,0.00,0.00,VWS V14.01,2014-01-24 02:15:00,
2014-01-23 21:17:00,0.8,-3.1,30.62,NNW,348,0.0,11.0,83,0.00,,---,0.00,0.00,VWS V14.01,2014-01-24 02:17:00,
2014-01-23 21:19:00,0.8,-3.1,30.62,North,351,5.0,5.0,83,0.00,,---,0.00,0.00,VWS V14.01,2014-01-24 02:19:00,
2014-01-23 21:21:00,0.8,-3.1,30.62,NNW,348,1.0,1.0,83,0.00,,---,0.00,0.00,VWS V14.01,2014-01-24 02:21:00,
2014-01-23 21:22:00,0.8,-3.1,30.62,NNW,346,5.0,5.0,83,0.00,,---,0.00,0.00,VWS V14.01,2014-01-24 02:22:00,
2014-01-23 21:23:00,0.8,-3.1,30.62,North,360,3.0,10.0,83,0.00,,---,0.00,0.00,VWS V14.01,2014-01-24 02:23:00,
2014-01-23 21:25:00,0.8,-3.1,30.62,North,355,7.0,7.0,83,0.00,,---,0.00,0.00,VWS V14.01,2014-01-24 02:25:00,
2014-01-23 21:26:00,0.8,-3.1,30.62,North,351,0.0,2.0,83,0.00,,---,0.00,0.00,VWS V14.01,2014-01-24 02:26:00,
2014-01-23 21:27:00,0.8,-3.1,30.62,NNW,344,4.0,7.0,83,0.00,,---,0.00,0.00,VWS V14.01,2014-01-24 02:27:00,
2014-01-23 21:28:00,0.8,-3.4,30.62,NNW,346,0.0,7.0,82,0.00,,---,0.00,0.00,VWS V14.01,2014-01-24 02:28:00,
2014-01-23 21:30:00,0.9,-3.0,30.62,NNW,338,2.0,2.0,83,0.00,,---,0.00,0.00,VWS V14.01,2014-01-24 02:30:00,
2014-01-23 21:31:00,0.9,-3.0,30.62,NNW,340,5.0,5.0,83,0.00,,---,0.00,0.00,VWS V14.01,2014-01-24 02:31:00,
2014-01-23 21:32:00,0.9,-3.3,30.62,NNW,340,2.0,3.0,82,0.00,,---,0.00,0.00,VWS V14.01,2014-01-24 02:32:00,
2014-01-23 21:33:00,0.9,-3.3,30.62,NNW,340,1.0,1.0,82,0.00,,---,0.00,0.00,VWS V14.01,2014-01-24 02:33:00,
2014-01-23 21:35:00,0.9,-3.0,30.62,NNW,340,1.0,2.0,83,0.00,,---,0.00,0.00,VWS V14.01,2014-01-24 02:35:00,
2014-01-23 21:36:00,0.9,-3.0,30.62,NNW,346,4.0,4.0,83,0.00,,---,0.00,0.00,VWS V14.01,2014-01-24 02:36:00,
2014-01-23 21:37:00,0.9,-3.0,30.62,NNW,346,5.0,5.0,83,0.00,,---,0.00,0.00,VWS V14.01,2014-01-24 02:37:00,
2014-01-23 21:38:00,0.9,-3.0,30.62,NNW,346,2.0,2.0,83,0.00,,---,0.00,0.00,VWS V14.01,2014-01-24 02:38:00,
2014-01-23 21:40:00,0.9,-3.3,30.62,NNW,344,2.0,2.0,82,0.00,,---,0.00,0.00,VWS V14.01,2014-01-24 02:40:00,
2014-01-23 21:42:00,0.9,-3.3,30.62,NNW,344,3.0,4.0,82,0.00,,---,0.00,0.00,VWS V14.01,2014-01-24 02:42:00,
2014-01-23 21:43:00,0.9,-3.3,30.62,NNW,344,3.0,3.0,82,0.00,,---,0.00,0.00,VWS V14.01,2014-01-24 02:43:00,
2014-01-23 21:45:00,0.9,-3.3,30.62,NNW,348,2.0,3.0,82,0.00,,---,0.00,0.00,VWS V14.01,2014-01-24 02:45:00,
2014-01-23 21:47:00,0.9,-3.3,30.62,NNW,348,2.0,5.0,82,0.00,,---,0.00,0.00,VWS V14.01,2014-01-24 02:47:00,
2014-01-23 21:48:00,0.9,-3.3,30.62,North,5,3.0,7.0,82,0.00,,---,0.00,0.00,VWS V14.01,2014-01-24 02:48:00,
2014-01-23 21:50:00,1.0,-3.2,30.61,North,355,1.0,4.0,82,0.00,,---,0.00,0.00,VWS V14.01,2014-01-24 02:50:00,
2014-01-23 21:52:00,1.0,-3.2,30.62,North,355,3.0,3.0,82,0.00,,---,0.00,0.00,VWS V14.01,2014-01-24 02:52:00,
2014-01-23 21:53:00,1.1,-3.1,30.62,North,351,4.0,5.0,82,0.00,,---,0.00,0.00,VWS V14.01,2014-01-24 02:53:00,
2014-01-23 21:55:00,1.2,-2.8,30.61,NNW,340,4.0,6.0,83,0.00,,---,0.00,0.00,VWS V14.01,2014-01-24 02:55:00,
2014-01-23 21:57:00,1.3,-2.7,30.61,NW,304,3.0,3.0,83,0.00,,---,0.00,0.00,VWS V14.01,2014-01-24 02:57:00,
2014-01-23 21:58:00,1.3,-2.7,30.61,NW,306,3.0,4.0,83,0.00,,---,0.00,0.00,VWS V14.01,2014-01-24 02:58:00,
2014-01-23 22:00:00,1.4,-2.8,30.62,NNW,340,4.0,4.0,82,0.00,,---,0.00,0.00,VWS V14.01,2014-01-24 03:00:00,
2014-01-23 22:02:00,1.5,-2.5,30.62,NNW,336,5.0,5.0,83,0.00,,---,0.00,0.00,VWS V14.01,2014-01-24 03:02:00,
2014-01-23 22:03:00,1.5,-2.5,30.62,NNW,338,0.0,1.0,83,0.00,,---,0.00,0.00,VWS V14.01,2014-01-24 03:03:00,
2014-01-23 22:04:00,1.5,-2.5,30.62,NNW,342,4.0,4.0,83,0.00,,---,0.00,0.00,VWS V14.01,2014-01-24 03:04:00,
2014-01-23 22:05:00,1.5,-2.7,30.62,NNW,348,3.0,8.0,82,0.00,,---,0.00,0.00,VWS V14.01,2014-01-24 03:05:00,
2014-01-23 22:07:00,1.5,-2.7,30.62,NNW,341,3.0,3.0,82,0.00,,---,0.00,0.00,VWS V14.01,2014-01-24 03:07:00,
2014-01-23 22:08:00,1.6,-2.6,30.62,NNW,341,3.0,3.0,82,0.00,,---,0.00,0.00,VWS V14.01,2014-01-24 03:08:00,
2014-01-23 22:09:00,1.6,-2.6,30.62,NNW,341,3.0,6.0,82,0.00,,---,0.00,0.00,VWS V14.01,2014-01-24 03:09:00,
2014-01-23 22:11:00,1.7,-2.3,30.62,NNW,338,4.0,4.0,83,0.00,,---,0.00,0.00,VWS V14.01,2014-01-24 03:11:00,
2014-01-23 22:12:00,1.7,-2.3,30.62,NNW,338,0.0,3.0,83,0.00,,---,0.00,0.00,VWS V14.01,2014-01-24 03:12:00,
2014-01-23 22:13:00,1.7,-2.3,30.62,NNW,341,4.0,4.0,83,0.00,,---,0.00,0.00,VWS V14.01,2014-01-24 03:13:00,
2014-01-23 22:14:00,1.7,-2.3,30.62,NNW,339,5.0,5.0,83,0.00,,---,0.00,0.00,VWS V14.01,2014-01-24 03:14:00,
2014-01-23 22:15:00,1.7,-2.3,30.62,NNW,338,2.0,4.0,83,0.00,,---,0.00,0.00,VWS V14.01,2014-01-24 03:15:00,
2014-01-23 22:16:00,1.8,-2.2,30.62,NNW,338,3.0,3.0,83,0.00,,---,0.00,0.00,VWS V14.01,2014-01-24 03:16:00,
2014-01-23 22:17:00,1.9,-2.1,30.62,NNW,339,3.0,3.0,83,0.00,,---,0.00,0.00,VWS V14.01,2014-01-24 03:17:00,
2014-01-23 22:18:00,1.9,-2.1,30.62,North,355,3.0,4.0,83,0.00,,---,0.00,0.00,VWS V14.01,2014-01-24 03:18:00,
2014-01-23 22:19:00,1.9,-2.1,30.62,NW,311,3.0,6.0,83,0.00,,---,0.00,0.00,VWS V14.01,2014-01-24 03:19:00,
2014-01-23 22:20:00,1.9,-2.1,30.62,NW,312,3.0,3.0,83,0.00,,---,0.00,0.00,VWS V14.01,2014-01-24 03:20:00,
2014-01-23 22:21:00,2.0,-2.0,30.62,NNW,348,5.0,9.0,83,0.00,,---,0.00,0.00,VWS V14.01,2014-01-24 03:21:00,
2014-01-23 22:22:00,2.0,-2.0,30.62,North,349,0.0,4.0,83,0.00,,---,0.00,0.00,VWS V14.01,2014-01-24 03:22:00,
2014-01-23 22:23:00,2.0,-2.0,30.62,NNW,347,4.0,4.0,83,0.00,,---,0.00,0.00,VWS V14.01,2014-01-24 03:23:00,
2014-01-23 22:24:00,2.0,-2.0,30.62,NNW,342,5.0,7.0,83,0.00,,---,0.00,0.00,VWS V14.01,2014-01-24 03:24:00,
2014-01-23 22:25:00,1.9,-2.1,30.62,North,350,3.0,3.0,83,0.00,,---,0.00,0.00,VWS V14.01,2014-01-24 03:25:00,
2014-01-23 22:26:00,1.9,-2.1,30.62,North,350,2.0,3.0,83,0.00,,---,0.00,0.00,VWS V14.01,2014-01-24 03:26:00,
2014-01-23 22:27:00,1.9,-2.1,30.62,North,350,3.0,3.0,83,0.00,,---,0.00,0.00,VWS V14.01,2014-01-24 03:27:00,
2014-01-23 22:28:00,1.9,-2.1,30.62,North,350,3.0,4.0,83,0.00,,---,0.00,0.00,VWS V14.01,2014-01-24 03:28:00,
2014-01-23 22:29:00,1.9,-2.1,30.62,NW,325,3.0,3.0,83,0.00,,---,0.00,0.00,VWS V14.01,2014-01-24 03:29:00,
2014-01-23 22:30:00,1.8,-2.2,30.62,NNW,346,2.0,6.0,83,0.00,,---,0.00,0.00,VWS V14.01,2014-01-24 03:30:00,
2014-01-23 22:31:00,1.8,-2.2,30.62,NNW,346,2.0,6.0,83,0.00,,---,0.00,0.00,VWS V14.01,2014-01-24 03:31:00,
2014-01-23 22:32:00,1.8,-2.4,30.62,NNW,346,2.0,4.0,82,0.00,,---,0.00,0.00,VWS V14.01,2014-01-24 03:32:00,
2014-01-23 22:33:00,1.8,-2.4,30.62,NNW,348,1.0,2.0,82,0.00,,---,0.00,0.00,VWS V14.01,2014-01-24 03:33:00,
2014-01-23 22:34:00,1.8,-2.4,30.62,NNW,348,4.0,4.0,82,0.00,,---,0.00,0.00,VWS V14.01,2014-01-24 03:34:00,
2014-01-23 22:35:00,1.7,-2.5,30.62,North,350,4.0,7.0,82,0.00,,---,0.00,0.00,VWS V14.01,2014-01-24 03:35:00,
2014-01-23 22:37:00,1.7,-2.5,30.62,North,350,3.0,3.0,82,0.00,,---,0.00,0.00,VWS V14.01,2014-01-24 03:37:00,
2014-01-23 22:38:00,1.7,-2.5,30.62,NNW,346,2.0,7.0,82,0.00,,---,0.00,0.00,VWS V14.01,2014-01-24 03:38:00,
2014-01-23 22:39:00,1.7,-2.5,30.62,NNW,346,4.0,4.0,82,0.00,,---,0.00,0.00,VWS V14.01,2014-01-24 03:39:00,
2014-01-23 22:40:00,1.7,-2.5,30.62,NNW,338,5.0,6.0,82,0.00,,---,0.00,0.00,VWS V14.01,2014-01-24 03:40:00,
2014-01-23 22:42:00,1.6,-2.6,30.62,North,360,4.0,5.0,82,0.00,,---,0.00,0.00,VWS V14.01,2014-01-24 03:42:00,
2014-01-23 22:43:00,1.6,-2.9,30.62,North,350,2.0,5.0,81,0.00,,---,0.00,0.00,VWS V14.01,2014-01-24 03:43:00,
2014-01-23 22:44:00,1.6,-2.9,30.62,NNW,342,4.0,8.0,81,0.00,,---,0.00,0.00,VWS V14.01,2014-01-24 03:44:00,
2014-01-23 22:45:00,1.5,-3.0,30.62,NNW,344,4.0,8.0,81,0.00,,---,0.00,0.00,VWS V14.01,2014-01-24 03:45:00,
2014-01-23 22:46:00,1.5,-3.0,30.62,North,355,4.0,7.0,81,0.00,,---,0.00,0.00,VWS V14.01,2014-01-24 03:46:00,
2014-01-23 22:47:00,1.5,-3.0,30.62,North,350,4.0,4.0,81,0.00,,---,0.00,0.00,VWS V14.01,2014-01-24 03:47:00,
2014-01-23 22:48:00,1.4,-3.1,30.62,NNW,346,3.0,6.0,81,0.00,,---,0.00,0.00,VWS V14.01,2014-01-24 03:48:00,
2014-01-23 22:49:00,1.4,-3.1,30.62,North,5,6.0,10.0,81,0.00,,---,0.00,0.00,VWS V14.01,2014-01-24 03:49:00,
2014-01-23 22:50:00,1.4,-3.1,30.62,NNW,348,10.0,10.0,81,0.00,,---,0.00,0.00,VWS V14.01,2014-01-24 03:50:00,
2014-01-23 22:51:00,1.4,-3.1,30.62,NNW,345,8.0,8.0,81,0.00,,---,0.00,0.00,VWS V14.01,2014-01-24 03:51:00,
2014-01-23 22:52:00,1.4,-3.1,30.62,NNW,345,2.0,7.0,81,0.00,,---,0.00,0.00,VWS V14.01,2014-01-24 03:52:00,
2014-01-23 22:53:00,1.4,-3.1,30.62,NNW,344,4.0,7.0,81,0.00,,---,0.00,0.00,VWS V14.01,2014-01-24 03:53:00,
2014-01-23 22:54:00,1.3,-3.2,30.62,NNW,341,1.0,4.0,81,0.00,,---,0.00,0.00,VWS V14.01,2014-01-24 03:54:00,
2014-01-23 22:55:00,1.3,-3.2,30.62,NW,320,4.0,4.0,81,0.00,,---,0.00,0.00,VWS V14.01,2014-01-24 03:55:00,
2014-01-23 22:56:00,1.3,-3.2,30.62,North,355,7.0,7.0,81,0.00,,---,0.00,0.00,VWS V14.01,2014-01-24 03:56:00,
2014-01-23 22:57:00,1.2,-3.3,30.62,NNW,344,4.0,5.0,81,0.00,,---,0.00,0.00,VWS V14.01,2014-01-24 03:57:00,
2014-01-23 22:58:00,1.2,-3.3,30.62,NNW,344,4.0,4.0,81,0.00,,---,0.00,0.00,VWS V14.01,2014-01-24 03:58:00,
2014-01-23 23:00:00,1.1,-3.4,30.62,NNW,333,3.0,4.0,81,0.00,,---,0.00,0.00,VWS V14.01,2014-01-24 04:00:00,
2014-01-23 23:01:00,1.1,-3.4,30.62,NNW,341,4.0,4.0,81,0.00,,---,0.00,0.00,VWS V14.01,2014-01-24 04:01:00,
2014-01-23 23:02:00,1.0,-3.5,30.62,NNW,347,3.0,10.0,81,0.00,,---,0.00,0.00,VWS V14.01,2014-01-24 04:02:00,
2014-01-23 23:03:00,1.1,-3.4,30.62,NNW,347,3.0,10.0,81,0.00,,---,0.00,0.00,VWS V14.01,2014-01-24 04:03:00,
2014-01-23 23:05:00,1.0,-3.5,30.62,NNW,342,1.0,3.0,81,0.00,,---,0.00,0.00,VWS V14.01,2014-01-24 04:05:00,
2014-01-23 23:06:00,1.0,-3.5,30.62,NNW,341,3.0,3.0,81,0.00,,---,0.00,0.00,VWS V14.01,2014-01-24 04:06:00,
2014-01-23 23:08:00,0.9,-3.5,30.62,NNW,343,2.0,4.0,81,0.00,,---,0.00,0.00,VWS V14.01,2014-01-24 04:08:00,
2014-01-23 23:09:00,0.9,-3.5,30.62,NNW,343,0.0,2.0,81,0.00,,---,0.00,0.00,VWS V14.01,2014-01-24 04:09:00,
2014-01-23 23:10:00,0.9,-3.5,30.62,NNW,343,2.0,3.0,81,0.00,,---,0.00,0.00,VWS V14.01,2014-01-24 04:10:00,
2014-01-23 23:11:00,0.8,-3.7,30.62,NNW,344,5.0,6.0,81,0.00,,---,0.00,0.00,VWS V14.01,2014-01-24 04:11:00,
2014-01-23 23:13:00,0.8,-3.7,30.62,NNW,344,3.0,3.0,81,0.00,,---,0.00,0.00,VWS V14.01,2014-01-24 04:13:00,
2014-01-23 23:14:00,0.8,-3.4,30.62,NNW,342,0.0,1.0,82,0.00,,---,0.00,0.00,VWS V14.01,2014-01-24 04:14:00,
2014-01-23 23:15:00,0.7,-3.5,30.62,NNW,342,5.0,5.0,82,0.00,,---,0.00,0.00,VWS V14.01,2014-01-24 04:15:00,
2014-01-23 23:16:00,0.7,-3.5,30.62,NNW,340,0.0,3.0,82,0.00,,---,0.00,0.00,VWS V14.01,2014-01-24 04:16:00,
2014-01-23 23:18:00,0.6,-3.6,30.62,NNW,340,2.0,2.0,82,0.00,,---,0.00,0.00,VWS V14.01,2014-01-24 04:18:00,
2014-01-23 23:19:00,0.6,-3.6,30.62,NNW,340,3.0,3.0,82,0.00,,---,0.00,0.00,VWS V14.01,2014-01-24 04:19:00,
2014-01-23 23:20:00,0.6,-3.6,30.62,NNW,333,1.0,2.0,82,0.00,,---,0.00,0.00,VWS V14.01,2014-01-24 04:20:00,
2014-01-23 23:21:00,0.5,-3.7,30.62,NNW,334,1.0,5.0,82,0.00,,---,0.00,0.00,VWS V14.01,2014-01-24 04:21:00,
2014-01-23 23:23:00,0.5,-3.7,30.62,NNW,347,1.0,2.0,82,0.00,,---,0.00,0.00,VWS V14.01,2014-01-24 04:23:00,
2014-01-23 23:24:00,0.4,-3.8,30.62,NNW,346,4.0,4.0,82,0.00,,---,0.00,0.00,VWS V14.01,2014-01-24 04:24:00,
2014-01-23 23:25:00,0.4,-3.8,30.62,NW,321,4.0,4.0,82,0.00,,---,0.00,0.00,VWS V14.01,2014-01-24 04:25:00,
2014-01-23 23:26:00,0.4,-3.8,30.62,WNW,302,0.0,3.0,82,0.00,,---,0.00,0.00,VWS V14.01,2014-01-24 04:26:00,
2014-01-23 23:28:00,0.3,-3.9,30.62,WNW,302,2.0,2.0,82,0.00,,---,0.00,0.00,VWS V14.01,2014-01-24 04:28:00,
2014-01-23 23:29:00,0.3,-3.9,30.62,WNW,302,2.0,3.0,82,0.00,,---,0.00,0.00,VWS V14.01,2014-01-24 04:29:00,
2014-01-23 23:30:00,0.3,-3.9,30.62,WNW,302,4.0,4.0,82,0.00,,---,0.00,0.00,VWS V14.01,2014-01-24 04:30:00,
2014-01-23 23:31:00,0.2,-4.0,30.62,NW,319,3.0,4.0,82,0.00,,---,0.00,0.00,VWS V14.01,2014-01-24 04:31:00,
2014-01-23 23:33:00,0.2,-4.0,30.62,NW,321,2.0,3.0,82,0.00,,---,0.00,0.00,VWS V14.01,2014-01-24 04:33:00,
2014-01-23 23:34:00,0.2,-4.0,30.62,NW,324,3.0,3.0,82,0.00,,---,0.00,0.00,VWS V14.01,2014-01-24 04:34:00,
2014-01-23 23:35:00,0.2,-4.0,30.62,North,350,3.0,7.0,82,0.00,,---,0.00,0.00,VWS V14.01,2014-01-24 04:35:00,
2014-01-23 23:36:00,0.2,-4.0,30.62,North,350,0.0,7.0,82,0.00,,---,0.00,0.00,VWS V14.01,2014-01-24 04:36:00,
2014-01-23 23:38:00,0.1,-4.1,30.62,NNW,342,1.0,6.0,82,0.00,,---,0.00,0.00,VWS V14.01,2014-01-24 04:38:00,
2014-01-23 23:39:00,0.1,-4.1,30.62,NNW,338,3.0,6.0,82,0.00,,---,0.00,0.00,VWS V14.01,2014-01-24 04:39:00,
2014-01-23 23:40:00,0.1,-4.1,30.62,NNW,346,1.0,7.0,82,0.00,,---,0.00,0.00,VWS V14.01,2014-01-24 04:40:00,
2014-01-23 23:41:00,0.1,-4.1,30.62,NNW,348,5.0,6.0,82,0.00,,---,0.00,0.00,VWS V14.01,2014-01-24 04:41:00,
2014-01-23 23:42:00,0.1,-4.1,30.62,NNW,346,0.0,6.0,82,0.00,,---,0.00,0.00,VWS V14.01,2014-01-24 04:42:00,
2014-01-23 23:43:00,0.1,-4.1,30.62,NNW,346,2.0,2.0,82,0.00,,---,0.00,0.00,VWS V14.01,2014-01-24 04:43:00,
2014-01-23 23:44:00,0.1,-4.2,30.62,NNW,346,3.0,5.0,82,0.00,,---,0.00,0.00,VWS V14.01,2014-01-24 04:44:00,
2014-01-23 23:45:00,0.1,-4.2,30.62,NNW,346,1.0,4.0,82,0.00,,---,0.00,0.00,VWS V14.01,2014-01-24 04:45:00,
2014-01-23 23:46:00,0.1,-4.2,30.62,NNW,346,4.0,8.0,82,0.00,,---,0.00,0.00,VWS V14.01,2014-01-24 04:46:00,
2014-01-23 23:47:00,0.1,-4.2,30.62,NNW,346,1.0,1.0,82,0.00,,---,0.00,0.00,VWS V14.01,2014-01-24 04:47:00,
2014-01-23 23:49:00,-0.1,-4.3,30.62,North,350,3.0,5.0,82,0.00,,---,0.00,0.00,VWS V14.01,2014-01-24 04:49:00,
2014-01-23 23:50:00,-0.1,-4.3,30.62,North,350,7.0,7.0,82,0.00,,---,0.00,0.00,VWS V14.01,2014-01-24 04:50:00,
2014-01-23 23:51:00,-0.1,-4.3,30.63,NNW,348,2.0,10.0,82,0.00,,---,0.00,0.00,VWS V14.01,2014-01-24 04:51:00,
2014-01-23 23:53:00,-0.1,-4.3,30.62,NNW,348,1.0,3.0,82,0.00,,---,0.00,0.00,VWS V14.01,2014-01-24 04:53:00,
2014-01-23 23:54:00,-0.1,-4.3,30.62,NNW,344,5.0,5.0,82,0.00,,---,0.00,0.00,VWS V14.01,2014-01-24 04:54:00,
2014-01-23 23:55:00,-0.1,-4.3,30.62,NNW,342,4.0,9.0,82,0.00,,---,0.00,0.00,VWS V14.01,2014-01-24 04:55:00,
2014-01-23 23:56:00,-0.1,-4.3,30.62,NNW,347,8.0,13.0,82,0.00,,---,0.00,0.00,VWS V14.01,2014-01-24 04:56:00,
2014-01-23 23:58:00,-0.1,-4.3,30.62,NNW,346,1.0,7.0,82,0.00,,---,0.00,0.00,VWS V14.01,2014-01-24 04:58:00,
2014-01-23 23:59:00,-0.1,-4.3,30.62,NNW,344,3.0,5.0,82,0.00,,---,0.00,0.00,VWS V14.01,2014-01-24 04:59:00,